Wetterdaten: aktuell Samstag, 17.08.2019 16:02
Datum Zeit Temp. 2m Temp. 5cm Feuchte 2m Luftdruck Regen Wind Richtung Richtung Taupunkt Windchill Windben
17.08.2019 16:02 22,2 C 21,9 C 56 % 1009,6 hPa 0,0 l/m 5,1 km/h (1 Bft) S 180 13,0 C 22,2 C 13,5 km/h (3 Bft)
17.08.2019 16:00 22,2 C 21,9 C 56 % 1009,6 hPa 0,0 l/m 5,8 km/h (2 Bft) SW 225 13,0 C 22,2 C 2,7 km/h (1 Bft)
17.08.2019 15:58 22,3 C 21,5 C 55 % 1009,6 hPa 0,0 l/m 5,8 km/h (2 Bft) NO 45 12,8 C 22,3 C 9,4 km/h (2 Bft)
17.08.2019 15:56 22,4 C 22,5 C 56 % 1009,6 hPa 0,0 l/m 4,6 km/h (1 Bft) SO 135 13,2 C 22,4 C 6,8 km/h (2 Bft)
17.08.2019 15:54 22,4 C 22,5 C 56 % 1009,8 hPa 0,0 l/m 5,1 km/h (1 Bft) NW 315 13,2 C 22,4 C 2,4 km/h (1 Bft)
17.08.2019 15:52 22,4 C 22,2 C 56 % 1009,8 hPa 0,0 l/m 5,6 km/h (1 Bft) O-NO 67 13,2 C 22,4 C 7,0 km/h (2 Bft)
17.08.2019 15:50 22,5 C 22,0 C 56 % 1009,8 hPa 0,0 l/m 5,1 km/h (1 Bft) NW 315 13,3 C 22,5 C 6,5 km/h (2 Bft)
17.08.2019 15:48 22,5 C 22,4 C 56 % 1009,8 hPa 0,0 l/m 6,0 km/h (2 Bft) O-NO 67 13,3 C 22,5 C 3,4 km/h (1 Bft)
17.08.2019 15:46 22,6 C 22,3 C 56 % 1009,8 hPa 0,0 l/m 6,8 km/h (2 Bft) S-SO 157 13,4 C 22,5 C 2,7 km/h (1 Bft)
17.08.2019 15:44 22,6 C 22,9 C 57 % 1009,8 hPa 0,0 l/m 6,0 km/h (2 Bft) NO 45 13,6 C 22,6 C 8,7 km/h (2 Bft)
17.08.2019 15:42 22,7 C 24,0 C 56 % 1009,8 hPa 0,0 l/m 5,3 km/h (1 Bft) S-SO 157 13,5 C 22,7 C 6,8 km/h (2 Bft)
17.08.2019 15:40 22,6 C 25,0 C 56 % 1009,8 hPa 0,0 l/m 5,1 km/h (1 Bft) O-SO 112 13,4 C 22,6 C 7,7 km/h (2 Bft)
17.08.2019 15:38 22,5 C 25,9 C 57 % 1009,8 hPa 0,0 l/m 4,1 km/h (1 Bft) S 180 13,5 C 22,5 C 16,4 km/h (3 Bft)
17.08.2019 15:36 22,3 C 26,7 C 58 % 1009,8 hPa 0,0 l/m 2,9 km/h (1 Bft) O-SO 112 13,6 C 22,3 C 11,8 km/h (2 Bft)
17.08.2019 15:34 22,2 C 26,4 C 59 % 1009,5 hPa 0,0 l/m 2,4 km/h (1 Bft) O-NO 67 13,8 C 22,2 C 4,8 km/h (1 Bft)
17.08.2019 15:32 21,9 C 24,2 C 58 % 1009,5 hPa 0,0 l/m 3,1 km/h (1 Bft) O-SO 112 13,3 C 21,9 C 2,9 km/h (1 Bft)
17.08.2019 15:30 21,9 C 23,5 C 59 % 1009,5 hPa 0,0 l/m 3,9 km/h (1 Bft) O-SO 112 13,5 C 21,9 C 6,0 km/h (2 Bft)
17.08.2019 15:28 21,8 C 22,7 C 59 % 1009,5 hPa 0,0 l/m 3,6 km/h (1 Bft) SO 135 13,4 C 21,8 C 0,0 km/h (0 Bft)
17.08.2019 15:26 21,7 C 21,8 C 59 % 1009,5 hPa 0,0 l/m 4,1 km/h (1 Bft) O-NO 67 13,3 C 21,7 C 9,7 km/h (2 Bft)
17.08.2019 15:24 21,6 C 21,9 C 60 % 1009,5 hPa 0,0 l/m 4,1 km/h (1 Bft) N-NO 22 13,5 C 21,6 C 3,6 km/h (1 Bft)
17.08.2019 15:22 21,6 C 22,2 C 59 % 1009,5 hPa 0,0 l/m 3,9 km/h (1 Bft) O-NO 67 13,2 C 21,6 C 4,3 km/h (1 Bft)
17.08.2019 15:20 21,8 C 22,0 C 59 % 1009,5 hPa 0,0 l/m 3,4 km/h (1 Bft) O-SO 112 13,4 C 21,8 C 4,1 km/h (1 Bft)
17.08.2019 15:18 21,8 C 21,8 C 58 % 1009,5 hPa 0,0 l/m 3,6 km/h (1 Bft) N-NO 22 13,2 C 21,8 C 4,6 km/h (1 Bft)
17.08.2019 15:16 21,8 C 21,9 C 59 % 1009,5 hPa 0,0 l/m 3,9 km/h (1 Bft) O-NO 67 13,4 C 21,8 C 2,4 km/h (1 Bft)
17.08.2019 15:14 21,8 C 21,8 C 59 % 1009,7 hPa 0,0 l/m 4,1 km/h (1 Bft) NW 315 13,4 C 21,8 C 5,1 km/h (1 Bft)
17.08.2019 15:12 21,8 C 22,0 C 59 % 1009,7 hPa 0,0 l/m 3,9 km/h (1 Bft) O-NO 67 13,4 C 21,8 C 5,6 km/h (1 Bft)
17.08.2019 15:10 21,8 C 22,1 C 58 % 1009,7 hPa 0,0 l/m 4,1 km/h (1 Bft) N-NW 337 13,2 C 21,8 C 4,6 km/h (1 Bft)
17.08.2019 15:08 21,7 C 21,4 C 58 % 1009,7 hPa 0,0 l/m 4,6 km/h (1 Bft) SW 225 13,1 C 21,7 C 5,1 km/h (1 Bft)
17.08.2019 15:06 21,6 C 21,5 C 58 % 1009,7 hPa 0,0 l/m 4,1 km/h (1 Bft) W-SW 247 13,0 C 21,6 C 13,8 km/h (3 Bft)
17.08.2019 15:04 21,6 C 21,3 C 59 % 1009,7 hPa 0,0 l/m 3,9 km/h (1 Bft) N-NW 337 13,2 C 21,6 C 3,9 km/h (1 Bft)
17.08.2019 15:02 21,6 C 21,0 C 59 % 1009,7 hPa 0,0 l/m 4,3 km/h (1 Bft) O-NO 67 13,2 C 21,6 C 4,6 km/h (1 Bft)
17.08.2019 15:00 21,6 C 20,9 C 58 % 1009,7 hPa 0,0 l/m 4,6 km/h (1 Bft) N-NW 337 13,0 C 21,6 C 3,4 km/h (1 Bft)
17.08.2019 14:58 21,7 C 21,0 C 58 % 1009,7 hPa 0,0 l/m 4,6 km/h (1 Bft) N-NO 22 13,1 C 21,7 C 7,5 km/h (2 Bft)
17.08.2019 14:56 21,7 C 20,9 C 57 % 1009,7 hPa 0,0 l/m 4,8 km/h (1 Bft) O-NO 67 12,8 C 21,7 C 0,0 km/h (0 Bft)
17.08.2019 14:54 21,8 C 21,0 C 57 % 1009,7 hPa 0,0 l/m 4,8 km/h (1 Bft) N-NO 22 12,9 C 21,8 C 8,2 km/h (2 Bft)
17.08.2019 14:52 21,8 C 21,1 C 56 % 1009,7 hPa 0,0 l/m 4,3 km/h (1 Bft) N-NO 22 12,6 C 21,8 C 5,1 km/h (1 Bft)
17.08.2019 14:50 21,8 C 21,1 C 57 % 1009,7 hPa 0,0 l/m 4,3 km/h (1 Bft) N-NO 22 12,9 C 21,8 C 11,6 km/h (2 Bft)
17.08.2019 14:48 22,1 C 20,9 C 56 % 1009,7 hPa 0,0 l/m 4,8 km/h (1 Bft) O-NO 67 12,9 C 22,1 C 4,6 km/h (1 Bft)
17.08.2019 14:46 22,2 C 21,0 C 55 % 1009,7 hPa 0,0 l/m 5,3 km/h (1 Bft) O-NO 67 12,7 C 22,2 C 5,8 km/h (2 Bft)
17.08.2019 14:44 22,3 C 21,6 C 55 % 1009,7 hPa 0,0 l/m 5,1 km/h (1 Bft) N-NW 337 12,8 C 22,3 C 2,4 km/h (1 Bft)
17.08.2019 14:42 22,4 C 21,7 C 56 % 1009,7 hPa 0,0 l/m 5,6 km/h (1 Bft) O-SO 112 13,2 C 22,4 C 2,4 km/h (1 Bft)
17.08.2019 14:40 22,5 C 22,1 C 56 % 1009,7 hPa 0,0 l/m 5,6 km/h (1 Bft) W 270 13,3 C 22,5 C 12,8 km/h (3 Bft)
17.08.2019 14:38 22,5 C 22,8 C 56 % 1009,7 hPa 0,0 l/m 4,3 km/h (1 Bft) W 270 13,3 C 22,5 C 6,5 km/h (2 Bft)
17.08.2019 14:36 22,5 C 23,4 C 57 % 1009,7 hPa 0,0 l/m 4,3 km/h (1 Bft) S-SO 157 13,5 C 22,5 C 7,2 km/h (2 Bft)
17.08.2019 14:34 22,6 C 25,3 C 56 % 1009,4 hPa 0,0 l/m 3,9 km/h (1 Bft) W-NW 292 13,4 C 22,6 C 2,9 km/h (1 Bft)
17.08.2019 14:32 22,5 C 24,8 C 56 % 1009,4 hPa 0,0 l/m 4,1 km/h (1 Bft) O-NO 67 13,3 C 22,5 C 7,0 km/h (2 Bft)
17.08.2019 14:30 22,5 C 25,4 C 56 % 1009,4 hPa 0,0 l/m 4,3 km/h (1 Bft) O-SO 112 13,3 C 22,5 C 3,9 km/h (1 Bft)
17.08.2019 14:28 22,4 C 24,5 C 56 % 1009,4 hPa 0,0 l/m 4,6 km/h (1 Bft) O-NO 67 13,2 C 22,4 C 5,6 km/h (1 Bft)
17.08.2019 14:26 22,1 C 22,9 C 53 % 1009,4 hPa 0,0 l/m 6,0 km/h (2 Bft) O 90 12,1 C 22,1 C 6,3 km/h (2 Bft)
17.08.2019 14:24 22,2 C 22,2 C 56 % 1009,4 hPa 0,0 l/m 6,3 km/h (2 Bft) SO 135 13,0 C 22,2 C 3,9 km/h (1 Bft)
17.08.2019 14:22 22,3 C 21,9 C 56 % 1009,4 hPa 0,0 l/m 6,0 km/h (2 Bft) O-SO 112 13,1 C 22,3 C 4,1 km/h (1 Bft)
17.08.2019 14:20 22,4 C 22,9 C 56 % 1009,4 hPa 0,0 l/m 5,8 km/h (2 Bft) NO 45 13,2 C 22,4 C 4,3 km/h (1 Bft)
17.08.2019 14:18 22,3 C 23,3 C 56 % 1009,4 hPa 0,0 l/m 5,1 km/h (1 Bft) NW 315 13,1 C 22,3 C 6,0 km/h (2 Bft)
17.08.2019 14:16 22,2 C 22,5 C 57 % 1009,4 hPa 0,0 l/m 4,3 km/h (1 Bft) N-NO 22 13,3 C 22,2 C 6,5 km/h (2 Bft)
17.08.2019 14:14 22,2 C 23,1 C 57 % 1009,4 hPa 0,0 l/m 3,6 km/h (1 Bft) N-NW 337 13,3 C 22,2 C 11,3 km/h (2 Bft)
17.08.2019 14:12 22,2 C 23,3 C 57 % 1009,4 hPa 0,0 l/m 3,1 km/h (1 Bft) S-SO 157 13,3 C 22,2 C 4,3 km/h (1 Bft)
17.08.2019 14:10 22,2 C 23,1 C 57 % 1009,4 hPa 0,0 l/m 3,1 km/h (1 Bft) O-NO 67 13,3 C 22,2 C 6,5 km/h (2 Bft)
17.08.2019 14:08 22,3 C 23,3 C 58 % 1009,4 hPa 0,0 l/m 2,9 km/h (1 Bft) O-SO 112 13,6 C 22,3 C 2,9 km/h (1 Bft)
17.08.2019 14:06 22,1 C 22,9 C 58 % 1009,4 hPa 0,0 l/m 3,6 km/h (1 Bft) O 90 13,4 C 22,1 C 0,0 km/h (0 Bft)
17.08.2019 14:04 21,8 C 22,3 C 58 % 1009,4 hPa 0,0 l/m 3,6 km/h (1 Bft) N-NO 22 13,2 C 21,8 C 4,3 km/h (1 Bft)
17.08.2019 14:02 21,7 C 21,5 C 57 % 1009,4 hPa 0,0 l/m 4,1 km/h (1 Bft) O-NO 67 12,8 C 21,7 C 5,8 km/h (2 Bft)
17.08.2019 14:00 21,8 C 21,6 C 57 % 1009,4 hPa 0,0 l/m 5,1 km/h (1 Bft) O 90 12,9 C 21,8 C 5,1 km/h (1 Bft)
17.08.2019 13:58 21,8 C 22,0 C 57 % 1009,4 hPa 0,0 l/m 5,6 km/h (1 Bft) N-NW 337 12,9 C 21,8 C 3,4 km/h (1 Bft)
17.08.2019 13:56 21,8 C 21,9 C 58 % 1009,4 hPa 0,0 l/m 5,6 km/h (1 Bft) O-NO 67 13,2 C 21,8 C 7,0 km/h (2 Bft)
17.08.2019 13:54 21,7 C 21,8 C 57 % 1009,4 hPa 0,0 l/m 5,8 km/h (2 Bft) W-NW 292 12,8 C 21,7 C 3,6 km/h (1 Bft)
17.08.2019 13:52 21,7 C 21,5 C 57 % 1009,4 hPa 0,0 l/m 5,8 km/h (2 Bft) O-NO 67 12,8 C 21,7 C 11,3 km/h (2 Bft)
17.08.2019 13:50 22,0 C 21,7 C 57 % 1009,4 hPa 0,0 l/m 4,8 km/h (1 Bft) O-SO 112 13,1 C 22,0 C 13,0 km/h (3 Bft)
17.08.2019 13:48 22,1 C 22,2 C 57 % 1009,4 hPa 0,0 l/m 4,1 km/h (1 Bft) N-NO 22 13,2 C 22,1 C 3,6 km/h (1 Bft)
17.08.2019 13:46 22,3 C 22,5 C 57 % 1009,4 hPa 0,0 l/m 4,1 km/h (1 Bft) O-NO 67 13,4 C 22,3 C 5,3 km/h (1 Bft)
17.08.2019 13:44 22,4 C 22,7 C 58 % 1009,4 hPa 0,0 l/m 5,6 km/h (1 Bft) O-SO 112 13,7 C 22,4 C 5,6 km/h (1 Bft)
17.08.2019 13:42 22,2 C 22,5 C 58 % 1009,4 hPa 0,0 l/m 5,6 km/h (1 Bft) NW 315 13,5 C 22,2 C 3,1 km/h (1 Bft)
17.08.2019 13:40 21,9 C 22,3 C 57 % 1009,4 hPa 0,0 l/m 6,8 km/h (2 Bft) O-NO 67 13,0 C 21,8 C 2,7 km/h (1 Bft)
17.08.2019 13:38 21,9 C 22,1 C 57 % 1009,4 hPa 0,0 l/m 7,7 km/h (2 Bft) O-SO 112 13,0 C 21,4 C 3,9 km/h (1 Bft)
17.08.2019 13:36 22,0 C 22,1 C 57 % 1009,4 hPa 0,0 l/m 8,9 km/h (2 Bft) N-NO 22 13,1 C 21,2 C 8,4 km/h (2 Bft)
17.08.2019 13:34 21,9 C 21,9 C 57 % 1009,4 hPa 0,0 l/m 8,9 km/h (2 Bft) SW 225 13,0 C 21,1 C 19,6 km/h (3 Bft)
17.08.2019 13:32 21,8 C 21,5 C 56 % 1009,4 hPa 0,0 l/m 8,0 km/h (2 Bft) SW 225 12,6 C 21,2 C 4,8 km/h (1 Bft)
17.08.2019 13:30 21,9 C 22,2 C 56 % 1009,4 hPa 0,0 l/m 8,7 km/h (2 Bft) S 180 12,7 C 21,1 C 9,9 km/h (2 Bft)
17.08.2019 13:28 22,0 C 22,2 C 57 % 1009,4 hPa 0,0 l/m 8,7 km/h (2 Bft) O-SO 112 13,1 C 21,2 C 8,0 km/h (2 Bft)
17.08.2019 13:26 21,8 C 22,2 C 57 % 1009,4 hPa 0,0 l/m 8,9 km/h (2 Bft) O-SO 112 12,9 C 21,0 C 15,9 km/h (3 Bft)
17.08.2019 13:24 21,7 C 22,5 C 57 % 1009,4 hPa 0,0 l/m 7,7 km/h (2 Bft) O-NO 67 12,8 C 21,2 C 22,2 km/h (4 Bft)
17.08.2019 13:22 21,6 C 22,2 C 57 % 1009,4 hPa 0,0 l/m 8,4 km/h (2 Bft) SO 135 12,7 C 20,9 C 4,8 km/h (1 Bft)
17.08.2019 13:20 21,6 C 22,0 C 56 % 1009,4 hPa 0,0 l/m 8,7 km/h (2 Bft) O 90 12,4 C 20,8 C 14,7 km/h (3 Bft)
17.08.2019 13:18 21,7 C 21,9 C 57 % 1009,4 hPa 0,0 l/m 8,4 km/h (2 Bft) N-NO 22 12,8 C 21,0 C 12,1 km/h (2 Bft)
17.08.2019 13:16 21,8 C 22,0 C 57 % 1009,4 hPa 0,0 l/m 7,0 km/h (2 Bft) N-NO 22 12,9 C 21,6 C 10,1 km/h (2 Bft)
17.08.2019 13:14 21,7 C 22,3 C 55 % 1009,7 hPa 0,0 l/m 6,3 km/h (2 Bft) SO 135 12,3 C 21,7 C 10,1 km/h (2 Bft)
17.08.2019 13:12 22,0 C 22,8 C 57 % 1009,7 hPa 0,0 l/m 5,1 km/h (1 Bft) O-SO 112 13,1 C 22,0 C 16,2 km/h (3 Bft)
17.08.2019 13:10 22,1 C 23,0 C 59 % 1009,7 hPa 0,0 l/m 6,0 km/h (2 Bft) N-NO 22 13,7 C 22,1 C 7,7 km/h (2 Bft)
17.08.2019 13:08 22,1 C 23,1 C 59 % 1009,7 hPa 0,0 l/m 6,3 km/h (2 Bft) NO 45 13,7 C 22,1 C 14,5 km/h (3 Bft)
17.08.2019 13:06 22,2 C 23,1 C 60 % 1009,7 hPa 0,0 l/m 5,6 km/h (1 Bft) S-SO 157 14,1 C 22,2 C 0,0 km/h (0 Bft)
17.08.2019 13:04 21,7 C 22,1 C 59 % 1009,7 hPa 0,0 l/m 5,8 km/h (2 Bft) O-NO 67 13,3 C 21,7 C 2,7 km/h (1 Bft)
17.08.2019 13:02 21,4 C 21,5 C 58 % 1009,7 hPa 0,0 l/m 5,8 km/h (2 Bft) SO 135 12,8 C 21,4 C 3,6 km/h (1 Bft)
17.08.2019 13:00 21,6 C 22,0 C 58 % 1009,7 hPa 0,0 l/m 5,1 km/h (1 Bft) W-SW 247 13,0 C 21,6 C 18,6 km/h (3 Bft)
17.08.2019 12:58 21,8 C 22,3 C 59 % 1009,7 hPa 0,0 l/m 3,6 km/h (1 Bft) O-NO 67 13,4 C 21,8 C 2,4 km/h (1 Bft)
17.08.2019 12:56 21,7 C 22,3 C 58 % 1009,7 hPa 0,0 l/m 3,6 km/h (1 Bft) W-SW 247 13,1 C 21,7 C 0,0 km/h (0 Bft)
17.08.2019 12:54 21,8 C 22,1 C 59 % 1009,9 hPa 0,0 l/m 4,1 km/h (1 Bft) NW 315 13,4 C 21,8 C 4,8 km/h (1 Bft)
17.08.2019 12:52 21,5 C 22,0 C 58 % 1009,9 hPa 0,0 l/m 5,3 km/h (1 Bft) O-NO 67 12,9 C 21,5 C 8,9 km/h (2 Bft)
17.08.2019 12:50 21,8 C 22,1 C 59 % 1009,9 hPa 0,0 l/m 5,6 km/h (1 Bft) O 90 13,4 C 21,8 C 3,9 km/h (1 Bft)
17.08.2019 12:48 21,8 C 22,1 C 59 % 1009,9 hPa 0,0 l/m 5,3 km/h (1 Bft) O-NO 67 13,4 C 21,8 C 5,8 km/h (2 Bft)
17.08.2019 12:46 21,9 C 22,3 C 60 % 1009,9 hPa 0,0 l/m 5,1 km/h (1 Bft) NW 315 13,8 C 21,9 C 3,4 km/h (1 Bft)
17.08.2019 12:44 21,7 C 22,0 C 59 % 1009,9 hPa 0,0 l/m 5,3 km/h (1 Bft) O-NO 67 13,3 C 21,7 C 7,2 km/h (2 Bft)
17.08.2019 12:42 21,6 C 22,4 C 59 % 1009,9 hPa 0,0 l/m 4,6 km/h (1 Bft) O-NO 67 13,2 C 21,6 C 11,3 km/h (2 Bft)
17.08.2019 12:40 21,5 C 22,1 C 60 % 1009,9 hPa 0,0 l/m 4,6 km/h (1 Bft) O-NO 67 13,4 C 21,5 C 10,1 km/h (2 Bft)
17.08.2019 12:38 21,5 C 21,8 C 60 % 1009,9 hPa 0,0 l/m 5,1 km/h (1 Bft) NW 315 13,4 C 21,5 C 5,1 km/h (1 Bft)
17.08.2019 12:36 21,5 C 22,3 C 59 % 1009,9 hPa 0,0 l/m 5,1 km/h (1 Bft) SO 135 13,1 C 21,5 C 7,7 km/h (2 Bft)
17.08.2019 12:34 21,7 C 22,2 C 61 % 1009,7 hPa 0,0 l/m 4,8 km/h (1 Bft) O-NO 67 13,8 C 21,7 C 5,6 km/h (1 Bft)
17.08.2019 12:32 21,4 C 21,8 C 60 % 1009,7 hPa 0,0 l/m 4,1 km/h (1 Bft) S-SO 157 13,3 C 21,4 C 6,3 km/h (2 Bft)
17.08.2019 12:30 21,2 C 21,7 C 61 % 1009,7 hPa 0,0 l/m 3,6 km/h (1 Bft) O-NO 67 13,4 C 21,2 C 7,0 km/h (2 Bft)
17.08.2019 12:28 21,4 C 22,1 C 62 % 1009,7 hPa 0,0 l/m 2,9 km/h (1 Bft) N-NO 22 13,8 C 21,4 C 8,0 km/h (2 Bft)
17.08.2019 12:26 21,1 C 22,0 C 61 % 1009,7 hPa 0,0 l/m 2,7 km/h (1 Bft) O-NO 67 13,3 C 21,1 C 6,5 km/h (2 Bft)
17.08.2019 12:24 21,1 C 22,2 C 61 % 1009,7 hPa 0,0 l/m 3,1 km/h (1 Bft) O-SO 112 13,3 C 21,1 C 4,1 km/h (1 Bft)
17.08.2019 12:22 21,1 C 21,9 C 62 % 1009,7 hPa 0,0 l/m 3,4 km/h (1 Bft) O-NO 67 13,5 C 21,1 C 2,9 km/h (1 Bft)
17.08.2019 12:20 21,3 C 22,0 C 62 % 1009,7 hPa 0,0 l/m 3,4 km/h (1 Bft) SO 135 13,7 C 21,3 C 4,3 km/h (1 Bft)
17.08.2019 12:18 20,9 C 21,6 C 62 % 1009,7 hPa 0,0 l/m 3,6 km/h (1 Bft) N-NO 22 13,3 C 20,9 C 6,3 km/h (2 Bft)
17.08.2019 12:16 20,8 C 21,3 C 62 % 1009,7 hPa 0,0 l/m 3,9 km/h (1 Bft) W 270 13,2 C 20,8 C 4,3 km/h (1 Bft)
17.08.2019 12:14 20,6 C 21,7 C 62 % 1009,7 hPa 0,0 l/m 2,9 km/h (1 Bft) O-NO 67 13,1 C 20,6 C 6,3 km/h (2 Bft)
17.08.2019 12:12 20,3 C 21,6 C 63 % 1009,7 hPa 0,0 l/m 1,9 km/h (1 Bft) O-NO 67 13,0 C 20,3 C 0,0 km/h (0 Bft)
17.08.2019 12:10 20,3 C 21,6 C 63 % 1009,7 hPa 0,0 l/m 1,9 km/h (1 Bft) O-NO 67 13,0 C 20,3 C 0,0 km/h (0 Bft)
17.08.2019 12:08 20,3 C 21,6 C 63 % 1009,7 hPa 0,0 l/m 1,9 km/h (1 Bft) O-NO 67 13,0 C 20,3 C 0,0 km/h (0 Bft)
17.08.2019 12:06 20,3 C 21,6 C 63 % 1009,7 hPa 0,0 l/m 1,9 km/h (1 Bft) O-NO 67 13,0 C 20,3 C 0,0 km/h (0 Bft)
17.08.2019 12:04 20,3 C 21,6 C 63 % 1009,7 hPa 0,0 l/m 1,9 km/h (1 Bft) O-NO 67 13,0 C 20,3 C 0,0 km/h (0 Bft)
17.08.2019 12:02 20,3 C 21,6 C 63 % 1009,7 hPa 0,0 l/m 1,9 km/h (1 Bft) O-NO 67 13,0 C 20,3 C 0,0 km/h (0 Bft)
17.08.2019 12:00 20,3 C 21,7 C 65 % 1009,7 hPa 0,0 l/m 2,4 km/h (1 Bft) S 180 13,5 C 20,3 C 5,1 km/h (1 Bft)
17.08.2019 11:58 20,2 C 21,6 C 65 % 1009,7 hPa 0,0 l/m 2,4 km/h (1 Bft) SO 135 13,4 C 20,2 C 3,9 km/h (1 Bft)
17.08.2019 11:56 20,3 C 21,8 C 65 % 1009,7 hPa 0,0 l/m 2,7 km/h (1 Bft) O-NO 67 13,5 C 20,3 C 2,4 km/h (1 Bft)
17.08.2019 11:54 19,9 C 20,4 C 65 % 1009,8 hPa 0,0 l/m 3,4 km/h (1 Bft) N-NO 22 13,1 C 19,9 C 2,9 km/h (1 Bft)
17.08.2019 11:52 19,7 C 20,1 C 66 % 1009,8 hPa 0,0 l/m 3,9 km/h (1 Bft) SW 225 13,2 C 19,7 C 2,9 km/h (1 Bft)
17.08.2019 11:50 19,5 C 20,7 C 66 % 1009,8 hPa 0,0 l/m 3,9 km/h (1 Bft) W-SW 247 13,0 C 19,5 C 5,3 km/h (1 Bft)
17.08.2019 11:48 19,4 C 20,4 C 66 % 1009,8 hPa 0,0 l/m 3,9 km/h (1 Bft) SW 225 12,9 C 19,4 C 5,8 km/h (2 Bft)
17.08.2019 11:46 19,3 C 20,2 C 66 % 1009,8 hPa 0,0 l/m 3,1 km/h (1 Bft) W-SW 247 12,8 C 19,3 C 6,5 km/h (2 Bft)
17.08.2019 11:44 19,0 C 19,3 C 66 % 1009,8 hPa 0,0 l/m 2,7 km/h (1 Bft) W-SW 247 12,5 C 19,0 C 3,6 km/h (1 Bft)
17.08.2019 11:42 18,9 C 18,8 C 66 % 1009,8 hPa 0,0 l/m 2,9 km/h (1 Bft) SW 225 12,4 C 18,9 C 2,9 km/h (1 Bft)
17.08.2019 11:40 19,0 C 19,0 C 66 % 1009,8 hPa 0,0 l/m 2,9 km/h (1 Bft) S-SW 202 12,5 C 19,0 C 5,6 km/h (1 Bft)
17.08.2019 11:38 19,0 C 19,2 C 66 % 1009,8 hPa 0,0 l/m 2,7 km/h (1 Bft) S-SW 202 12,5 C 19,0 C 4,1 km/h (1 Bft)
17.08.2019 11:36 19,0 C 19,4 C 66 % 1009,8 hPa 0,0 l/m 2,7 km/h (1 Bft) S 180 12,5 C 19,0 C 4,6 km/h (1 Bft)
17.08.2019 11:34 19,0 C 19,5 C 66 % 1009,7 hPa 0,0 l/m 2,4 km/h (1 Bft) SW 225 12,5 C 19,0 C 2,9 km/h (1 Bft)
17.08.2019 11:32 19,1 C 19,8 C 67 % 1009,7 hPa 0,0 l/m 1,9 km/h (1 Bft) S 180 12,8 C 19,1 C 3,4 km/h (1 Bft)
17.08.2019 11:30 19,2 C 20,7 C 67 % 1009,7 hPa 0,0 l/m 2,2 km/h (1 Bft) S 180 12,9 C 19,2 C 3,6 km/h (1 Bft)
17.08.2019 11:28 19,1 C 21,3 C 67 % 1009,7 hPa 0,0 l/m 2,2 km/h (1 Bft) SO 135 12,8 C 19,1 C 0,0 km/h (0 Bft)
17.08.2019 11:26 19,0 C 21,5 C 67 % 1009,7 hPa 0,0 l/m 2,2 km/h (1 Bft) SO 135 12,7 C 19,0 C 0,0 km/h (0 Bft)
17.08.2019 11:24 18,7 C 21,2 C 68 % 1009,7 hPa 0,0 l/m 3,6 km/h (1 Bft) S 180 12,7 C 18,7 C 0,0 km/h (0 Bft)
17.08.2019 11:22 18,5 C 20,6 C 68 % 1009,7 hPa 0,0 l/m 4,1 km/h (1 Bft) S 180 12,5 C 18,5 C 3,6 km/h (1 Bft)
17.08.2019 11:20 18,3 C 20,2 C 68 % 1009,7 hPa 0,0 l/m 5,1 km/h (1 Bft) S-SW 202 12,3 C 18,3 C 3,9 km/h (1 Bft)
17.08.2019 11:18 18,2 C 19,8 C 68 % 1009,7 hPa 0,0 l/m 5,8 km/h (2 Bft) SW 225 12,2 C 18,2 C 3,9 km/h (1 Bft)
17.08.2019 11:16 18,2 C 20,1 C 69 % 1009,7 hPa 0,0 l/m 6,3 km/h (2 Bft) S-SW 202 12,4 C 18,2 C 4,3 km/h (1 Bft)
17.08.2019 11:14 18,3 C 21,3 C 70 % 1009,5 hPa 0,0 l/m 7,0 km/h (2 Bft) S 180 12,7 C 18,0 C 8,9 km/h (2 Bft)
17.08.2019 11:12 18,0 C 21,3 C 70 % 1009,5 hPa 0,0 l/m 7,2 km/h (2 Bft) W 270 12,4 C 17,6 C 7,2 km/h (2 Bft)
17.08.2019 11:10 17,7 C 20,1 C 70 % 1009,5 hPa 0,0 l/m 6,8 km/h (2 Bft) SW 225 12,2 C 17,5 C 10,6 km/h (2 Bft)
17.08.2019 11:08 18,0 C 20,6 C 71 % 1009,5 hPa 0,0 l/m 6,8 km/h (2 Bft) SW 225 12,7 C 17,8 C 8,9 km/h (2 Bft)
17.08.2019 11:06 18,0 C 21,2 C 71 % 1009,5 hPa 0,0 l/m 6,8 km/h (2 Bft) SW 225 12,7 C 17,8 C 8,7 km/h (2 Bft)
17.08.2019 11:04 17,5 C 19,6 C 71 % 1009,5 hPa 0,0 l/m 6,5 km/h (2 Bft) S-SO 157 12,2 C 17,5 C 8,7 km/h (2 Bft)
17.08.2019 11:02 17,3 C 17,8 C 70 % 1009,5 hPa 0,0 l/m 6,0 km/h (2 Bft) S-SW 202 11,8 C 17,3 C 8,7 km/h (2 Bft)
17.08.2019 11:00 17,3 C 17,9 C 70 % 1009,5 hPa 0,0 l/m 6,3 km/h (2 Bft) S-SW 202 11,8 C 17,3 C 6,5 km/h (2 Bft)
17.08.2019 10:58 17,3 C 18,1 C 71 % 1009,5 hPa 0,0 l/m 6,8 km/h (2 Bft) S-SW 202 12,0 C 17,1 C 8,0 km/h (2 Bft)
17.08.2019 10:56 17,3 C 18,1 C 71 % 1009,5 hPa 0,0 l/m 6,5 km/h (2 Bft) S 180 12,0 C 17,3 C 8,4 km/h (2 Bft)
17.08.2019 10:54 17,2 C 18,2 C 72 % 1009,5 hPa 0,0 l/m 6,5 km/h (2 Bft) S 180 12,1 C 17,2 C 6,8 km/h (2 Bft)
17.08.2019 10:52 17,2 C 18,8 C 72 % 1009,5 hPa 0,0 l/m 7,2 km/h (2 Bft) S-SW 202 12,1 C 16,8 C 4,8 km/h (1 Bft)
17.08.2019 10:50 17,2 C 19,7 C 73 % 1009,5 hPa 0,0 l/m 7,5 km/h (2 Bft) S 180 12,3 C 16,7 C 9,2 km/h (2 Bft)
17.08.2019 10:48 17,0 C 19,7 C 73 % 1009,5 hPa 0,0 l/m 7,2 km/h (2 Bft) SW 225 12,1 C 16,6 C 8,7 km/h (2 Bft)
17.08.2019 10:46 16,9 C 19,7 C 74 % 1009,5 hPa 0,0 l/m 7,2 km/h (2 Bft) S-SW 202 12,2 C 16,5 C 8,0 km/h (2 Bft)
17.08.2019 10:44 16,7 C 18,2 C 74 % 1009,5 hPa 0,0 l/m 7,0 km/h (2 Bft) SW 225 12,0 C 16,4 C 8,4 km/h (2 Bft)
17.08.2019 10:42 16,6 C 18,1 C 74 % 1009,5 hPa 0,0 l/m 7,0 km/h (2 Bft) SW 225 11,9 C 16,3 C 9,7 km/h (2 Bft)
17.08.2019 10:40 16,7 C 17,6 C 74 % 1009,5 hPa 0,0 l/m 7,2 km/h (2 Bft) S-SW 202 12,0 C 16,3 C 7,7 km/h (2 Bft)
17.08.2019 10:38 16,7 C 17,6 C 74 % 1009,5 hPa 0,0 l/m 7,0 km/h (2 Bft) SW 225 12,0 C 16,4 C 8,2 km/h (2 Bft)
17.08.2019 10:36 16,6 C 17,5 C 74 % 1009,5 hPa 0,0 l/m 7,0 km/h (2 Bft) S 180 11,9 C 16,3 C 8,2 km/h (2 Bft)
17.08.2019 10:34 16,6 C 17,7 C 74 % 1009,4 hPa 0,0 l/m 7,0 km/h (2 Bft) W 270 11,9 C 16,3 C 5,8 km/h (2 Bft)
17.08.2019 10:32 16,5 C 18,1 C 75 % 1009,4 hPa 0,0 l/m 7,0 km/h (2 Bft) W-SW 247 12,1 C 16,2 C 9,7 km/h (2 Bft)
17.08.2019 10:30 16,3 C 18,7 C 75 % 1009,4 hPa 0,0 l/m 6,8 km/h (2 Bft) W 270 11,9 C 16,1 C 8,0 km/h (2 Bft)
17.08.2019 10:28 16,2 C 19,1 C 75 % 1009,4 hPa 0,0 l/m 6,5 km/h (2 Bft) S-SW 202 11,8 C 16,2 C 8,7 km/h (2 Bft)
17.08.2019 10:26 16,0 C 19,8 C 76 % 1009,4 hPa 0,0 l/m 6,8 km/h (2 Bft) W-SW 247 11,8 C 15,8 C 9,4 km/h (2 Bft)
17.08.2019 10:24 16,0 C 20,1 C 76 % 1009,4 hPa 0,0 l/m 7,2 km/h (2 Bft) W-SW 247 11,8 C 15,6 C 6,8 km/h (2 Bft)
17.08.2019 10:22 15,7 C 19,6 C 77 % 1009,4 hPa 0,0 l/m 7,7 km/h (2 Bft) S 180 11,7 C 15,0 C 3,9 km/h (1 Bft)
17.08.2019 10:20 15,6 C 19,1 C 78 % 1009,4 hPa 0,0 l/m 8,0 km/h (2 Bft) W-SW 247 11,8 C 14,7 C 10,9 km/h (2 Bft)
17.08.2019 10:18 15,5 C 20,0 C 78 % 1009,4 hPa 0,0 l/m 8,4 km/h (2 Bft) SO 135 11,7 C 14,4 C 4,8 km/h (1 Bft)
17.08.2019 10:16 15,1 C 19,1 C 78 % 1009,4 hPa 0,0 l/m 8,7 km/h (2 Bft) SW 225 11,3 C 13,8 C 11,8 km/h (2 Bft)
17.08.2019 10:14 14,7 C 18,0 C 78 % 1009,2 hPa 0,0 l/m 8,4 km/h (2 Bft) W-SW 247 10,9 C 13,6 C 9,4 km/h (2 Bft)
17.08.2019 10:12 14,5 C 17,0 C 78 % 1009,2 hPa 0,0 l/m 8,4 km/h (2 Bft) NW 315 10,7 C 13,4 C 11,8 km/h (2 Bft)
17.08.2019 10:10 14,2 C 16,0 C 79 % 1009,2 hPa 0,0 l/m 8,4 km/h (2 Bft) SW 225 10,6 C 13,0 C 7,5 km/h (2 Bft)
17.08.2019 10:08 14,1 C 15,1 C 79 % 1009,2 hPa 0,0 l/m 8,4 km/h (2 Bft) W-SW 247 10,5 C 12,9 C 10,6 km/h (2 Bft)
17.08.2019 10:06 14,0 C 14,8 C 79 % 1009,2 hPa 0,0 l/m 8,7 km/h (2 Bft) S 180 10,4 C 12,7 C 9,7 km/h (2 Bft)
17.08.2019 10:04 14,0 C 14,5 C 79 % 1009,2 hPa 0,0 l/m 8,9 km/h (2 Bft) S 180 10,4 C 12,6 C 9,4 km/h (2 Bft)
17.08.2019 10:02 14,0 C 14,6 C 79 % 1009,2 hPa 0,0 l/m 9,7 km/h (2 Bft) SW 225 10,4 C 12,2 C 10,9 km/h (2 Bft)
17.08.2019 10:00 13,9 C 14,5 C 79 % 1009,2 hPa 0,0 l/m 10,1 km/h (2 Bft) SW 225 10,3 C 11,9 C 8,9 km/h (2 Bft)
17.08.2019 09:58 13,9 C 14,4 C 79 % 1009,2 hPa 0,0 l/m 10,1 km/h (2 Bft) W-SW 247 10,3 C 11,9 C 6,5 km/h (2 Bft)
17.08.2019 09:56 13,8 C 14,4 C 80 % 1009,2 hPa 0,0 l/m 9,9 km/h (2 Bft) SW 225 10,4 C 11,8 C 11,1 km/h (2 Bft)
17.08.2019 09:54 13,8 C 14,6 C 80 % 1009,4 hPa 0,0 l/m 10,6 km/h (2 Bft) W-SW 247 10,4 C 11,5 C 12,3 km/h (3 Bft)
17.08.2019 09:52 13,8 C 14,7 C 80 % 1009,4 hPa 0,0 l/m 10,4 km/h (2 Bft) W-SW 247 10,4 C 11,6 C 16,7 km/h (3 Bft)
17.08.2019 09:50 13,8 C 14,8 C 80 % 1009,4 hPa 0,0 l/m 9,4 km/h (2 Bft) S-SO 157 10,4 C 12,1 C 10,9 km/h (2 Bft)
17.08.2019 09:48 13,8 C 15,0 C 80 % 1009,4 hPa 0,0 l/m 9,2 km/h (2 Bft) W-SW 247 10,4 C 12,2 C 8,4 km/h (2 Bft)
17.08.2019 09:46 13,7 C 14,7 C 80 % 1009,4 hPa 0,0 l/m 9,2 km/h (2 Bft) SW 225 10,3 C 12,1 C 10,6 km/h (2 Bft)
17.08.2019 09:44 13,7 C 15,0 C 80 % 1009,4 hPa 0,0 l/m 9,2 km/h (2 Bft) W-SW 247 10,3 C 12,1 C 14,7 km/h (3 Bft)
17.08.2019 09:42 13,7 C 15,2 C 80 % 1009,4 hPa 0,0 l/m 8,2 km/h (2 Bft) S 180 10,3 C 12,6 C 7,7 km/h (2 Bft)
17.08.2019 09:40 13,6 C 15,0 C 80 % 1009,4 hPa 0,0 l/m 8,4 km/h (2 Bft) W-SW 247 10,2 C 12,4 C 8,7 km/h (2 Bft)
17.08.2019 09:38 13,4 C 14,7 C 80 % 1009,4 hPa 0,0 l/m 8,0 km/h (2 Bft) SW 225 10,0 C 12,4 C 9,9 km/h (2 Bft)
17.08.2019 09:36 13,3 C 14,3 C 80 % 1009,4 hPa 0,0 l/m 8,2 km/h (2 Bft) S 180 9,9 C 12,2 C 9,2 km/h (2 Bft)
17.08.2019 09:34 13,2 C 14,4 C 80 % 1009,6 hPa 0,0 l/m 8,4 km/h (2 Bft) W-SW 247 9,8 C 12,0 C 9,2 km/h (2 Bft)
17.08.2019 09:32 13,1 C 14,5 C 80 % 1009,6 hPa 0,0 l/m 8,4 km/h (2 Bft) S 180 9,7 C 11,9 C 9,7 km/h (2 Bft)
17.08.2019 09:30 13,0 C 14,1 C 80 % 1009,6 hPa 0,0 l/m 8,7 km/h (2 Bft) SW 225 9,6 C 11,6 C 9,9 km/h (2 Bft)
17.08.2019 09:28 13,0 C 14,1 C 81 % 1009,6 hPa 0,0 l/m 8,7 km/h (2 Bft) W-SW 247 9,8 C 11,6 C 10,1 km/h (2 Bft)
17.08.2019 09:26 12,9 C 13,6 C 81 % 1009,6 hPa 0,0 l/m 8,9 km/h (2 Bft) S 180 9,7 C 11,4 C 7,2 km/h (2 Bft)
17.08.2019 09:24 12,7 C 13,4 C 81 % 1009,6 hPa 0,0 l/m 8,9 km/h (2 Bft) S-SW 202 9,5 C 11,2 C 10,9 km/h (2 Bft)
17.08.2019 09:22 12,6 C 13,2 C 81 % 1009,6 hPa 0,0 l/m 8,9 km/h (2 Bft) W-SW 247 9,4 C 11,1 C 10,1 km/h (2 Bft)
17.08.2019 09:20 12,6 C 13,1 C 82 % 1009,6 hPa 0,0 l/m 8,9 km/h (2 Bft) S-SW 202 9,6 C 11,1 C 11,8 km/h (2 Bft)
17.08.2019 09:18 12,6 C 13,2 C 82 % 1009,6 hPa 0,0 l/m 8,7 km/h (2 Bft) SW 225 9,6 C 11,2 C 10,9 km/h (2 Bft)
17.08.2019 09:16 12,7 C 13,6 C 82 % 1009,6 hPa 0,0 l/m 8,2 km/h (2 Bft) SW 225 9,7 C 11,6 C 10,9 km/h (2 Bft)
17.08.2019 09:14 12,7 C 14,0 C 82 % 1009,3 hPa 0,0 l/m 8,2 km/h (2 Bft) SW 225 9,7 C 11,6 C 13,3 km/h (3 Bft)
17.08.2019 09:12 12,7 C 14,4 C 82 % 1009,3 hPa 0,0 l/m 8,7 km/h (2 Bft) W-SW 247 9,7 C 11,3 C 10,6 km/h (2 Bft)
17.08.2019 09:10 12,7 C 15,1 C 81 % 1009,3 hPa 0,0 l/m 8,4 km/h (2 Bft) S 180 9,5 C 11,5 C 8,9 km/h (2 Bft)
17.08.2019 09:08 12,4 C 14,2 C 81 % 1009,3 hPa 0,0 l/m 9,2 km/h (2 Bft) SW 225 9,2 C 10,7 C 6,3 km/h (2 Bft)
17.08.2019 09:06 12,3 C 13,7 C 81 % 1009,3 hPa 0,0 l/m 9,7 km/h (2 Bft) SW 225 9,1 C 10,3 C 7,2 km/h (2 Bft)
17.08.2019 09:04 12,1 C 13,0 C 81 % 1009,3 hPa 0,0 l/m 10,1 km/h (2 Bft) SW 225 8,9 C 9,9 C 10,1 km/h (2 Bft)
17.08.2019 09:02 12,1 C 12,8 C 81 % 1009,3 hPa 0,0 l/m 9,9 km/h (2 Bft) SW 225 8,9 C 10,0 C 15,0 km/h (3 Bft)
17.08.2019 09:00 12,1 C 12,8 C 81 % 1009,3 hPa 0,0 l/m 9,9 km/h (2 Bft) S 180 8,9 C 10,0 C 9,2 km/h (2 Bft)
17.08.2019 08:58 11,9 C 12,5 C 82 % 1009,3 hPa 0,0 l/m 10,1 km/h (2 Bft) SW 225 8,9 C 9,6 C 15,2 km/h (3 Bft)
17.08.2019 08:56 11,8 C 12,4 C 82 % 1009,3 hPa 0,0 l/m 10,1 km/h (2 Bft) SW 225 8,8 C 9,5 C 11,6 km/h (2 Bft)
17.08.2019 08:54 11,8 C 12,2 C 82 % 1009,4 hPa 0,0 l/m 10,1 km/h (2 Bft) SW 225 8,8 C 9,5 C 8,2 km/h (2 Bft)
17.08.2019 08:52 11,8 C 12,1 C 82 % 1009,4 hPa 0,0 l/m 10,4 km/h (2 Bft) W-SW 247 8,8 C 9,4 C 11,6 km/h (2 Bft)
17.08.2019 08:50 11,8 C 12,1 C 82 % 1009,4 hPa 0,0 l/m 10,6 km/h (2 Bft) S-SW 202 8,8 C 9,3 C 13,8 km/h (3 Bft)
17.08.2019 08:48 11,9 C 12,2 C 82 % 1009,4 hPa 0,0 l/m 10,4 km/h (2 Bft) W-SW 247 8,9 C 9,5 C 10,4 km/h (2 Bft)
17.08.2019 08:46 12,1 C 12,4 C 82 % 1009,4 hPa 0,0 l/m 9,9 km/h (2 Bft) W-SW 247 9,1 C 10,0 C 11,6 km/h (2 Bft)
17.08.2019 08:44 12,1 C 12,3 C 82 % 1009,4 hPa 0,0 l/m 9,9 km/h (2 Bft) S-SW 202 9,1 C 10,0 C 12,6 km/h (3 Bft)
17.08.2019 08:42 12,1 C 12,4 C 82 % 1009,4 hPa 0,0 l/m 9,9 km/h (2 Bft) W-SW 247 9,1 C 10,0 C 11,6 km/h (2 Bft)
17.08.2019 08:40 11,9 C 12,4 C 83 % 1009,4 hPa 0,0 l/m 9,7 km/h (2 Bft) SW 225 9,1 C 9,9 C 13,0 km/h (3 Bft)
17.08.2019 08:38 11,9 C 12,4 C 83 % 1009,4 hPa 0,0 l/m 9,7 km/h (2 Bft) SW 225 9,1 C 9,9 C 10,9 km/h (2 Bft)
17.08.2019 08:36 11,9 C 12,8 C 83 % 1009,4 hPa 0,0 l/m 9,9 km/h (2 Bft) S-SW 202 9,1 C 9,7 C 10,6 km/h (2 Bft)
17.08.2019 08:34 12,1 C 13,0 C 83 % 1009,4 hPa 0,0 l/m 9,9 km/h (2 Bft) W-SW 247 9,3 C 10,0 C 10,1 km/h (2 Bft)
17.08.2019 08:32 12,1 C 13,6 C 83 % 1009,4 hPa 0,0 l/m 9,7 km/h (2 Bft) SW 225 9,3 C 10,1 C 9,7 km/h (2 Bft)
17.08.2019 08:30 12,1 C 14,4 C 83 % 1009,4 hPa 0,0 l/m 9,9 km/h (2 Bft) SW 225 9,3 C 10,0 C 10,1 km/h (2 Bft)
17.08.2019 08:28 12,1 C 14,1 C 83 % 1009,4 hPa 0,0 l/m 10,1 km/h (2 Bft) W-SW 247 9,3 C 9,9 C 10,1 km/h (2 Bft)
17.08.2019 08:26 11,9 C 14,6 C 83 % 1009,4 hPa 0,0 l/m 10,4 km/h (2 Bft) SW 225 9,1 C 9,5 C 13,3 km/h (3 Bft)
17.08.2019 08:24 11,5 C 14,2 C 83 % 1009,4 hPa 0,0 l/m 10,4 km/h (2 Bft) S-SW 202 8,7 C 9,0 C 11,3 km/h (2 Bft)
17.08.2019 08:22 11,4 C 14,2 C 83 % 1009,4 hPa 0,0 l/m 10,9 km/h (2 Bft) W-SW 247 8,6 C 8,7 C 7,2 km/h (2 Bft)
17.08.2019 08:20 11,2 C 13,5 C 83 % 1009,4 hPa 0,0 l/m 11,1 km/h (2 Bft) W-SW 247 8,4 C 8,3 C 11,6 km/h (2 Bft)
17.08.2019 08:18 11,1 C 12,9 C 83 % 1009,4 hPa 0,0 l/m 11,1 km/h (2 Bft) SW 225 8,3 C 8,2 C 13,8 km/h (3 Bft)
17.08.2019 08:16 11,0 C 12,6 C 83 % 1009,4 hPa 0,0 l/m 10,9 km/h (2 Bft) SW 225 8,2 C 8,2 C 13,3 km/h (3 Bft)
17.08.2019 08:14 10,9 C 12,4 C 83 % 1009,4 hPa 0,0 l/m 10,6 km/h (2 Bft) SW 225 8,1 C 8,3 C 10,1 km/h (2 Bft)
17.08.2019 08:12 10,8 C 11,9 C 84 % 1009,4 hPa 0,0 l/m 11,1 km/h (2 Bft) W-SW 247 8,2 C 7,9 C 12,8 km/h (3 Bft)
17.08.2019 08:10 10,8 C 12,0 C 84 % 1009,4 hPa 0,0 l/m 11,3 km/h (2 Bft) S 180 8,2 C 7,8 C 11,8 km/h (2 Bft)
17.08.2019 08:08 10,8 C 12,0 C 84 % 1009,4 hPa 0,0 l/m 11,1 km/h (2 Bft) SW 225 8,2 C 7,9 C 11,1 km/h (2 Bft)
17.08.2019 08:06 10,8 C 12,3 C 84 % 1009,4 hPa 0,0 l/m 11,1 km/h (2 Bft) W-SW 247 8,2 C 7,9 C 13,3 km/h (3 Bft)
17.08.2019 08:04 10,7 C 12,4 C 84 % 1009,4 hPa 0,0 l/m 10,9 km/h (2 Bft) W-SW 247 8,1 C 7,9 C 12,3 km/h (3 Bft)
17.08.2019 08:02 10,6 C 12,5 C 84 % 1009,4 hPa 0,0 l/m 10,9 km/h (2 Bft) S-SW 202 8,0 C 7,8 C 13,5 km/h (3 Bft)
17.08.2019 08:00 10,5 C 12,0 C 84 % 1009,4 hPa 0,0 l/m 10,9 km/h (2 Bft) NW 315 7,9 C 7,7 C 14,2 km/h (3 Bft)
17.08.2019 07:58 10,4 C 12,0 C 84 % 1009,4 hPa 0,0 l/m 10,9 km/h (2 Bft) SW 225 7,8 C 7,5 C 11,1 km/h (2 Bft)
17.08.2019 07:56 10,4 C 11,9 C 84 % 1009,4 hPa 0,0 l/m 11,1 km/h (2 Bft) W-SW 247 7,8 C 7,4 C 9,4 km/h (2 Bft)
17.08.2019 07:54 10,3 C 11,6 C 84 % 1009,4 hPa 0,0 l/m 11,6 km/h (2 Bft) SW 225 7,7 C 7,1 C 8,9 km/h (2 Bft)
17.08.2019 07:52 10,2 C 11,3 C 84 % 1009,4 hPa 0,0 l/m 11,8 km/h (2 Bft) W-SW 247 7,6 C 6,8 C 12,8 km/h (3 Bft)
17.08.2019 07:50 10,1 C 10,9 C 84 % 1009,4 hPa 0,0 l/m 11,8 km/h (2 Bft) SW 225 7,5 C 6,7 C 11,6 km/h (2 Bft)
17.08.2019 07:48 10,0 C 10,4 C 84 % 1009,4 hPa 0,0 l/m 11,8 km/h (2 Bft) SW 225 7,4 C 6,6 C 14,0 km/h (3 Bft)
17.08.2019 07:46 10,0 C 10,2 C 84 % 1009,4 hPa 0,0 l/m 11,6 km/h (2 Bft) W-SW 247 7,4 C 6,7 C 12,8 km/h (3 Bft)
17.08.2019 07:44 10,0 C 10,2 C 84 % 1009,4 hPa 0,0 l/m 11,6 km/h (2 Bft) W-SW 247 7,4 C 6,7 C 12,3 km/h (3 Bft)
17.08.2019 07:42 10,0 C 10,2 C 84 % 1009,4 hPa 0,0 l/m 11,3 km/h (2 Bft) SW 225 7,4 C 6,9 C 11,6 km/h (2 Bft)
17.08.2019 07:40 10,0 C 10,4 C 84 % 1009,4 hPa 0,0 l/m 11,3 km/h (2 Bft) SW 225 7,4 C 6,9 C 12,8 km/h (3 Bft)
17.08.2019 07:38 10,0 C 11,0 C 84 % 1009,4 hPa 0,0 l/m 11,3 km/h (2 Bft) W-SW 247 7,4 C 6,9 C 15,2 km/h (3 Bft)
17.08.2019 07:36 10,0 C 11,4 C 84 % 1009,4 hPa 0,0 l/m 10,9 km/h (2 Bft) S-SW 202 7,4 C 7,1 C 12,1 km/h (2 Bft)
17.08.2019 07:34 10,0 C 11,6 C 84 % 1009,2 hPa 0,0 l/m 10,9 km/h (2 Bft) W-SW 247 7,4 C 7,1 C 11,8 km/h (2 Bft)
17.08.2019 07:32 9,9 C 11,3 C 84 % 1009,2 hPa 0,0 l/m 10,6 km/h (2 Bft) SW 225 7,3 C 7,1 C 11,6 km/h (2 Bft)
17.08.2019 07:30 9,8 C 11,2 C 84 % 1009,2 hPa 0,0 l/m 10,6 km/h (2 Bft) W-SW 247 7,2 C 7,0 C 12,3 km/h (3 Bft)
17.08.2019 07:28 9,7 C 11,0 C 84 % 1009,2 hPa 0,0 l/m 10,9 km/h (2 Bft) S-SW 202 7,1 C 6,8 C 11,8 km/h (2 Bft)
17.08.2019 07:26 9,6 C 11,9 C 84 % 1009,2 hPa 0,0 l/m 11,1 km/h (2 Bft) W-SW 247 7,0 C 6,5 C 11,1 km/h (2 Bft)
17.08.2019 07:24 9,3 C 10,5 C 84 % 1009,2 hPa 0,0 l/m 11,6 km/h (2 Bft) SW 225 6,7 C 5,9 C 12,1 km/h (2 Bft)
17.08.2019 07:22 9,2 C 10,2 C 84 % 1009,2 hPa 0,0 l/m 12,1 km/h (2 Bft) SW 225 6,6 C 5,5 C 10,9 km/h (2 Bft)
17.08.2019 07:20 9,2 C 9,7 C 84 % 1009,2 hPa 0,0 l/m 12,1 km/h (2 Bft) SW 225 6,6 C 5,5 C 14,5 km/h (3 Bft)
17.08.2019 07:18 9,2 C 9,5 C 84 % 1009,2 hPa 0,0 l/m 12,1 km/h (2 Bft) SW 225 6,6 C 5,5 C 13,3 km/h (3 Bft)
17.08.2019 07:16 9,1 C 9,4 C 84 % 1009,2 hPa 0,0 l/m 11,8 km/h (2 Bft) W-SW 247 6,5 C 5,6 C 11,8 km/h (2 Bft)
17.08.2019 07:14 9,1 C 9,3 C 84 % 1009,2 hPa 0,0 l/m 11,8 km/h (2 Bft) S 180 6,5 C 5,6 C 12,1 km/h (2 Bft)
17.08.2019 07:12 9,1 C 9,3 C 84 % 1009,2 hPa 0,0 l/m 11,8 km/h (2 Bft) S 180 6,5 C 5,6 C 12,1 km/h (2 Bft)
17.08.2019 07:10 9,1 C 9,0 C 84 % 1009,2 hPa 0,0 l/m 11,6 km/h (2 Bft) S 180 6,5 C 5,7 C 11,6 km/h (2 Bft)
17.08.2019 07:08 9,1 C 9,0 C 84 % 1009,2 hPa 0,0 l/m 11,8 km/h (2 Bft) SW 225 6,5 C 5,6 C 13,0 km/h (3 Bft)
17.08.2019 07:06 9,1 C 9,0 C 84 % 1009,2 hPa 0,0 l/m 11,8 km/h (2 Bft) W-SW 247 6,5 C 5,6 C 13,0 km/h (3 Bft)
17.08.2019 07:04 9,1 C 9,0 C 85 % 1009,2 hPa 0,0 l/m 12,1 km/h (2 Bft) SW 225 6,7 C 5,4 C 13,0 km/h (3 Bft)
17.08.2019 07:02 9,1 C 8,9 C 85 % 1009,2 hPa 0,0 l/m 12,1 km/h (2 Bft) S 180 6,7 C 5,4 C 10,6 km/h (2 Bft)
17.08.2019 07:00 9,1 C 9,0 C 85 % 1009,2 hPa 0,0 l/m 12,6 km/h (3 Bft) S-SW 202 6,7 C 5,2 C 10,9 km/h (2 Bft)
17.08.2019 06:58 9,2 C 8,9 C 85 % 1009,2 hPa 0,0 l/m 13,0 km/h (3 Bft) SW 225 6,8 C 5,1 C 14,5 km/h (3 Bft)
17.08.2019 06:56 9,2 C 8,8 C 85 % 1009,2 hPa 0,0 l/m 13,3 km/h (3 Bft) SW 225 6,8 C 4,9 C 12,8 km/h (3 Bft)
17.08.2019 06:54 9,3 C 8,9 C 85 % 1009,2 hPa 0,0 l/m 13,8 km/h (3 Bft) SW 225 6,9 C 4,8 C 14,2 km/h (3 Bft)
17.08.2019 06:52 9,3 C 8,9 C 85 % 1009,2 hPa 0,0 l/m 14,5 km/h (3 Bft) S 180 6,9 C 4,5 C 12,6 km/h (3 Bft)
17.08.2019 06:50 9,6 C 9,6 C 85 % 1009,2 hPa 0,0 l/m 15,0 km/h (3 Bft) SW 225 7,2 C 4,6 C 14,0 km/h (3 Bft)
17.08.2019 06:48 9,6 C 10,4 C 85 % 1009,2 hPa 0,0 l/m 15,2 km/h (3 Bft) W-SW 247 7,2 C 4,6 C 18,1 km/h (3 Bft)
17.08.2019 06:46 9,6 C 10,3 C 85 % 1009,2 hPa 0,0 l/m 14,7 km/h (3 Bft) SW 225 7,2 C 4,8 C 14,2 km/h (3 Bft)
17.08.2019 06:44 9,6 C 10,3 C 85 % 1009,2 hPa 0,0 l/m 15,0 km/h (3 Bft) SW 225 7,2 C 4,6 C 16,4 km/h (3 Bft)
17.08.2019 06:42 9,5 C 10,1 C 85 % 1009,2 hPa 0,0 l/m 15,2 km/h (3 Bft) W-SW 247 7,1 C 4,4 C 18,3 km/h (3 Bft)
17.08.2019 06:40 9,3 C 10,1 C 85 % 1009,2 hPa 0,0 l/m 15,7 km/h (3 Bft) SW 225 6,9 C 4,0 C 18,3 km/h (3 Bft)
17.08.2019 06:38 9,3 C 10,0 C 85 % 1009,2 hPa 0,0 l/m 15,9 km/h (3 Bft) SW 225 6,9 C 3,9 C 18,8 km/h (3 Bft)
17.08.2019 06:36 9,4 C 10,2 C 85 % 1009,2 hPa 0,0 l/m 15,9 km/h (3 Bft) SW 225 7,0 C 4,0 C 14,5 km/h (3 Bft)
17.08.2019 06:34 9,4 C 10,1 C 86 % 1009,2 hPa 0,0 l/m 17,4 km/h (3 Bft) W-SW 247 7,2 C 3,4 C 27,0 km/h (4 Bft)
17.08.2019 06:32 9,4 C 9,9 C 86 % 1009,2 hPa 0,0 l/m 17,9 km/h (3 Bft) SW 225 7,2 C 3,2 C 19,3 km/h (3 Bft)
17.08.2019 06:30 9,3 C 9,7 C 86 % 1009,2 hPa 0,0 l/m 17,6 km/h (3 Bft) SW 225 7,1 C 3,2 C 16,4 km/h (3 Bft)
17.08.2019 06:28 9,2 C 9,6 C 86 % 1009,2 hPa 0,0 l/m 17,9 km/h (3 Bft) W-SW 247 7,0 C 3,0 C 17,9 km/h (3 Bft)
17.08.2019 06:26 9,0 C 9,4 C 85 % 1009,2 hPa 0,0 l/m 17,6 km/h (3 Bft) S 180 6,6 C 2,9 C 18,6 km/h (3 Bft)
17.08.2019 06:24 8,8 C 8,8 C 86 % 1009,2 hPa 0,0 l/m 17,4 km/h (3 Bft) SW 225 6,6 C 2,7 C 21,2 km/h (4 Bft)
17.08.2019 06:22 8,8 C 8,6 C 86 % 1009,2 hPa 0,0 l/m 16,7 km/h (3 Bft) W-SW 247 6,6 C 3,0 C 19,3 km/h (3 Bft)
17.08.2019 06:20 8,7 C 8,4 C 86 % 1009,2 hPa 0,0 l/m 17,1 km/h (3 Bft) W-SW 247 6,5 C 2,7 C 23,2 km/h (4 Bft)
17.08.2019 06:18 8,8 C 8,3 C 86 % 1009,2 hPa 0,0 l/m 17,1 km/h (3 Bft) SW 225 6,6 C 2,8 C 21,2 km/h (4 Bft)
17.08.2019 06:16 8,8 C 8,2 C 86 % 1009,2 hPa 0,0 l/m 17,6 km/h (3 Bft) SW 225 6,6 C 2,6 C 15,9 km/h (3 Bft)
17.08.2019 06:14 8,8 C 8,3 C 86 % 1009,4 hPa 0,0 l/m 18,1 km/h (3 Bft) SW 225 6,6 C 2,4 C 17,9 km/h (3 Bft)
17.08.2019 06:12 8,7 C 8,1 C 86 % 1009,4 hPa 0,0 l/m 17,1 km/h (3 Bft) SW 225 6,5 C 2,7 C 16,2 km/h (3 Bft)
17.08.2019 06:10 8,7 C 8,1 C 86 % 1009,4 hPa 0,0 l/m 17,1 km/h (3 Bft) SW 225 6,5 C 2,7 C 16,2 km/h (3 Bft)
17.08.2019 06:08 8,7 C 8,1 C 86 % 1009,4 hPa 0,0 l/m 17,1 km/h (3 Bft) SW 225 6,5 C 2,7 C 16,2 km/h (3 Bft)
17.08.2019 06:06 8,7 C 8,1 C 86 % 1009,4 hPa 0,0 l/m 17,1 km/h (3 Bft) SW 225 6,5 C 2,7 C 16,2 km/h (3 Bft)
17.08.2019 06:04 8,7 C 8,1 C 86 % 1009,4 hPa 0,0 l/m 17,1 km/h (3 Bft) SW 225 6,5 C 2,7 C 16,2 km/h (3 Bft)
17.08.2019 06:02 8,7 C 8,1 C 86 % 1009,4 hPa 0,0 l/m 17,1 km/h (3 Bft) SW 225 6,5 C 2,7 C 16,2 km/h (3 Bft)
17.08.2019 06:00 8,6 C 7,8 C 86 % 1009,4 hPa 0,0 l/m 17,1 km/h (3 Bft) W-SW 247 6,4 C 2,6 C 16,9 km/h (3 Bft)
17.08.2019 05:58 8,6 C 8,0 C 86 % 1009,4 hPa 0,0 l/m 17,6 km/h (3 Bft) W-SW 247 6,4 C 2,4 C 23,2 km/h (4 Bft)
17.08.2019 05:56 8,7 C 7,7 C 86 % 1009,4 hPa 0,0 l/m 17,9 km/h (3 Bft) W-SW 247 6,5 C 2,4 C 16,2 km/h (3 Bft)
17.08.2019 05:54 8,7 C 8,0 C 86 % 1009,4 hPa 0,0 l/m 18,8 km/h (3 Bft) W-SW 247 6,5 C 2,0 C 21,0 km/h (4 Bft)
17.08.2019 05:52 8,7 C 8,0 C 86 % 1009,4 hPa 0,0 l/m 18,6 km/h (3 Bft) SW 225 6,5 C 2,1 C 21,7 km/h (4 Bft)
17.08.2019 05:50 8,7 C 8,0 C 86 % 1009,4 hPa 0,0 l/m 18,8 km/h (3 Bft) SW 225 6,5 C 2,0 C 23,4 km/h (4 Bft)
17.08.2019 05:48 8,7 C 7,8 C 86 % 1009,4 hPa 0,0 l/m 18,1 km/h (3 Bft) SW 225 6,5 C 2,3 C 17,4 km/h (3 Bft)
17.08.2019 05:46 8,6 C 7,8 C 86 % 1009,4 hPa 0,0 l/m 18,3 km/h (3 Bft) SW 225 6,4 C 2,1 C 21,5 km/h (4 Bft)
17.08.2019 05:44 8,6 C 7,7 C 86 % 1009,4 hPa 0,0 l/m 18,3 km/h (3 Bft) SW 225 6,4 C 2,1 C 21,2 km/h (4 Bft)
17.08.2019 05:42 8,6 C 7,8 C 86 % 1009,4 hPa 0,0 l/m 17,4 km/h (3 Bft) W-SW 247 6,4 C 2,4 C 18,3 km/h (3 Bft)
17.08.2019 05:40 8,7 C 7,8 C 86 % 1009,4 hPa 0,0 l/m 16,4 km/h (3 Bft) SW 225 6,5 C 3,0 C 18,6 km/h (3 Bft)
17.08.2019 05:38 8,7 C 7,8 C 86 % 1009,4 hPa 0,0 l/m 16,9 km/h (3 Bft) W-SW 247 6,5 C 2,8 C 17,6 km/h (3 Bft)
17.08.2019 05:36 8,7 C 8,0 C 86 % 1009,4 hPa 0,0 l/m 16,4 km/h (3 Bft) W-SW 247 6,5 C 3,0 C 17,4 km/h (3 Bft)
17.08.2019 05:34 8,7 C 7,8 C 86 % 1008,9 hPa 0,0 l/m 15,4 km/h (3 Bft) W-SW 247 6,5 C 3,4 C 26,8 km/h (4 Bft)
17.08.2019 05:32 8,7 C 7,8 C 86 % 1008,9 hPa 0,0 l/m 16,7 km/h (3 Bft) S 180 6,5 C 2,8 C 9,2 km/h (2 Bft)
17.08.2019 05:30 8,7 C 8,0 C 86 % 1008,9 hPa 0,0 l/m 18,1 km/h (3 Bft) W-SW 247 6,5 C 2,3 C 21,7 km/h (4 Bft)
17.08.2019 05:28 8,6 C 7,8 C 86 % 1008,9 hPa 0,0 l/m 17,4 km/h (3 Bft) W-SW 247 6,4 C 2,4 C 21,7 km/h (4 Bft)
17.08.2019 05:26 8,6 C 7,8 C 86 % 1008,9 hPa 0,0 l/m 17,4 km/h (3 Bft) SW 225 6,4 C 2,4 C 20,5 km/h (4 Bft)
17.08.2019 05:24 8,6 C 7,8 C 86 % 1008,9 hPa 0,0 l/m 16,7 km/h (3 Bft) SW 225 6,4 C 2,7 C 25,8 km/h (4 Bft)
17.08.2019 05:22 8,6 C 8,0 C 86 % 1008,9 hPa 0,0 l/m 15,9 km/h (3 Bft) W-SW 247 6,4 C 3,0 C 25,8 km/h (4 Bft)
17.08.2019 05:20 8,5 C 7,8 C 86 % 1008,9 hPa 0,0 l/m 15,4 km/h (3 Bft) W-SW 247 6,3 C 3,1 C 21,0 km/h (4 Bft)
17.08.2019 05:18 8,5 C 7,8 C 86 % 1008,9 hPa 0,0 l/m 14,5 km/h (3 Bft) SW 225 6,3 C 3,5 C 22,0 km/h (4 Bft)
17.08.2019 05:16 8,5 C 7,6 C 86 % 1008,9 hPa 0,0 l/m 14,0 km/h (3 Bft) SW 225 6,3 C 3,8 C 15,0 km/h (3 Bft)
17.08.2019 05:14 8,6 C 7,7 C 86 % 1009,6 hPa 0,0 l/m 15,0 km/h (3 Bft) S 180 6,4 C 3,4 C 12,3 km/h (3 Bft)
17.08.2019 05:12 8,6 C 7,8 C 86 % 1009,6 hPa 0,0 l/m 16,2 km/h (3 Bft) W-SW 247 6,4 C 2,9 C 14,7 km/h (3 Bft)
17.08.2019 05:10 8,6 C 7,8 C 86 % 1009,6 hPa 0,0 l/m 16,7 km/h (3 Bft) W-SW 247 6,4 C 2,7 C 20,3 km/h (4 Bft)
17.08.2019 05:08 8,7 C 7,8 C 86 % 1009,6 hPa 0,0 l/m 17,1 km/h (3 Bft) SW 225 6,5 C 2,7 C 15,2 km/h (3 Bft)
17.08.2019 05:06 8,7 C 8,1 C 85 % 1009,6 hPa 0,0 l/m 17,1 km/h (3 Bft) W-SW 247 6,3 C 2,7 C 19,3 km/h (3 Bft)
17.08.2019 05:04 8,7 C 8,0 C 85 % 1009,6 hPa 0,0 l/m 17,1 km/h (3 Bft) W-SW 247 6,3 C 2,7 C 25,6 km/h (4 Bft)
17.08.2019 05:02 8,7 C 8,0 C 85 % 1009,6 hPa 0,0 l/m 17,1 km/h (3 Bft) W-SW 247 6,3 C 2,7 C 25,6 km/h (4 Bft)
17.08.2019 05:00 8,7 C 7,8 C 85 % 1009,6 hPa 0,0 l/m 16,4 km/h (3 Bft) W-SW 247 6,3 C 3,0 C 22,4 km/h (4 Bft)
17.08.2019 04:58 8,7 C 8,0 C 85 % 1009,6 hPa 0,0 l/m 16,2 km/h (3 Bft) W-SW 247 6,3 C 3,0 C 22,7 km/h (4 Bft)
17.08.2019 04:56 8,8 C 8,1 C 85 % 1009,6 hPa 0,0 l/m 16,4 km/h (3 Bft) SW 225 6,4 C 3,1 C 17,4 km/h (3 Bft)
17.08.2019 04:54 8,7 C 8,1 C 85 % 1009,4 hPa 0,0 l/m 16,4 km/h (3 Bft) W-SW 247 6,3 C 3,0 C 22,2 km/h (4 Bft)
17.08.2019 04:52 8,7 C 8,1 C 85 % 1009,4 hPa 0,0 l/m 15,9 km/h (3 Bft) SW 225 6,3 C 3,2 C 20,0 km/h (4 Bft)
17.08.2019 04:50 8,8 C 7,8 C 85 % 1009,4 hPa 0,0 l/m 15,0 km/h (3 Bft) S-SW 202 6,4 C 3,7 C 16,2 km/h (3 Bft)
17.08.2019 04:48 8,8 C 8,1 C 85 % 1009,4 hPa 0,0 l/m 15,4 km/h (3 Bft) W-SW 247 6,4 C 3,5 C 19,8 km/h (3 Bft)
17.08.2019 04:46 8,8 C 8,1 C 85 % 1009,4 hPa 0,0 l/m 15,0 km/h (3 Bft) SW 225 6,4 C 3,7 C 20,8 km/h (4 Bft)
17.08.2019 04:44 8,8 C 8,2 C 85 % 1009,4 hPa 0,0 l/m 14,7 km/h (3 Bft) SW 225 6,4 C 3,8 C 17,1 km/h (3 Bft)
17.08.2019 04:42 8,9 C 8,0 C 85 % 1009,4 hPa 0,0 l/m 14,7 km/h (3 Bft) W-SW 247 6,5 C 3,9 C 15,7 km/h (3 Bft)
17.08.2019 04:40 8,9 C 8,2 C 85 % 1009,4 hPa 0,0 l/m 14,7 km/h (3 Bft) SW 225 6,5 C 3,9 C 15,2 km/h (3 Bft)
17.08.2019 04:38 8,9 C 8,1 C 85 % 1009,4 hPa 0,0 l/m 14,7 km/h (3 Bft) SW 225 6,5 C 3,9 C 15,2 km/h (3 Bft)
17.08.2019 04:36 8,9 C 8,1 C 85 % 1009,4 hPa 0,0 l/m 15,2 km/h (3 Bft) SW 225 6,5 C 3,7 C 13,8 km/h (3 Bft)
17.08.2019 04:34 8,9 C 8,2 C 85 % 1009,4 hPa 0,0 l/m 15,2 km/h (3 Bft) SW 225 6,5 C 3,7 C 16,9 km/h (3 Bft)
17.08.2019 04:32 9,0 C 8,3 C 84 % 1009,4 hPa 0,0 l/m 14,5 km/h (3 Bft) W-SW 247 6,4 C 4,1 C 17,9 km/h (3 Bft)
17.08.2019 04:30 9,0 C 8,2 C 84 % 1009,4 hPa 0,0 l/m 14,2 km/h (3 Bft) SW 225 6,4 C 4,3 C 13,5 km/h (3 Bft)
17.08.2019 04:28 9,2 C 8,2 C 84 % 1009,4 hPa 0,0 l/m 14,2 km/h (3 Bft) SW 225 6,6 C 4,5 C 19,8 km/h (3 Bft)
17.08.2019 04:26 9,2 C 8,2 C 84 % 1009,4 hPa 0,0 l/m 13,5 km/h (3 Bft) W-SW 247 6,6 C 4,8 C 18,1 km/h (3 Bft)
17.08.2019 04:24 9,2 C 8,1 C 84 % 1009,4 hPa 0,0 l/m 13,8 km/h (3 Bft) SW 225 6,6 C 4,7 C 23,7 km/h (4 Bft)
17.08.2019 04:22 9,2 C 8,3 C 84 % 1009,4 hPa 0,0 l/m 13,8 km/h (3 Bft) W-SW 247 6,6 C 4,7 C 16,9 km/h (3 Bft)
17.08.2019 04:20 9,0 C 8,2 C 84 % 1009,4 hPa 0,0 l/m 13,3 km/h (3 Bft) NW 315 6,4 C 4,7 C 14,7 km/h (3 Bft)
17.08.2019 04:18 9,0 C 8,0 C 84 % 1009,4 hPa 0,0 l/m 13,0 km/h (3 Bft) S-SW 202 6,4 C 4,9 C 11,1 km/h (2 Bft)
17.08.2019 04:16 9,2 C 8,2 C 84 % 1009,4 hPa 0,0 l/m 13,8 km/h (3 Bft) W-SW 247 6,6 C 4,7 C 12,8 km/h (3 Bft)
17.08.2019 04:14 9,2 C 8,3 C 84 % 1009,6 hPa 0,0 l/m 15,2 km/h (3 Bft) SW 225 6,6 C 4,1 C 21,0 km/h (4 Bft)
17.08.2019 04:12 9,2 C 8,3 C 84 % 1009,6 hPa 0,0 l/m 14,7 km/h (3 Bft) W-SW 247 6,6 C 4,3 C 21,2 km/h (4 Bft)
17.08.2019 04:10 9,1 C 8,3 C 84 % 1009,6 hPa 0,0 l/m 14,2 km/h (3 Bft) SW 225 6,5 C 4,4 C 16,4 km/h (3 Bft)
17.08.2019 04:08 9,2 C 8,3 C 84 % 1009,6 hPa 0,0 l/m 12,8 km/h (3 Bft) W-SW 247 6,6 C 5,2 C 13,5 km/h (3 Bft)
17.08.2019 04:06 9,1 C 8,3 C 84 % 1009,6 hPa 0,0 l/m 11,1 km/h (2 Bft) W-SW 247 6,5 C 6,0 C 14,5 km/h (3 Bft)
17.08.2019 04:04 9,1 C 8,3 C 84 % 1009,6 hPa 0,0 l/m 10,1 km/h (2 Bft) W-SW 247 6,5 C 6,5 C 22,2 km/h (4 Bft)
17.08.2019 04:02 9,0 C 8,1 C 84 % 1009,6 hPa 0,0 l/m 8,7 km/h (2 Bft) W-SW 247 6,4 C 7,3 C 12,8 km/h (3 Bft)
17.08.2019 04:00 9,1 C 7,7 C 84 % 1009,6 hPa 0,0 l/m 8,4 km/h (2 Bft) W-SW 247 6,5 C 7,6 C 15,9 km/h (3 Bft)
17.08.2019 03:58 9,1 C 8,0 C 84 % 1009,6 hPa 0,0 l/m 8,0 km/h (2 Bft) W-SW 247 6,5 C 7,9 C 5,6 km/h (1 Bft)
17.08.2019 03:56 9,1 C 8,0 C 84 % 1009,6 hPa 0,0 l/m 8,0 km/h (2 Bft) W-SW 247 6,5 C 7,9 C 14,0 km/h (3 Bft)
17.08.2019 03:54 9,2 C 8,0 C 84 % 1010,0 hPa 0,0 l/m 7,2 km/h (2 Bft) W-SW 247 6,6 C 8,6 C 12,8 km/h (3 Bft)
17.08.2019 03:52 9,2 C 8,0 C 84 % 1010,0 hPa 0,0 l/m 6,8 km/h (2 Bft) S-SO 157 6,6 C 8,9 C 8,7 km/h (2 Bft)
17.08.2019 03:50 9,2 C 7,8 C 84 % 1010,0 hPa 0,0 l/m 6,8 km/h (2 Bft) S-SW 202 6,6 C 8,9 C 12,1 km/h (2 Bft)
17.08.2019 03:48 9,2 C 7,9 C 84 % 1010,0 hPa 0,0 l/m 8,4 km/h (2 Bft) SW 225 6,6 C 7,7 C 9,9 km/h (2 Bft)
17.08.2019 03:46 9,2 C 8,0 C 84 % 1010,0 hPa 0,0 l/m 9,9 km/h (2 Bft) SW 225 6,6 C 6,8 C 8,9 km/h (2 Bft)
17.08.2019 03:44 9,3 C 7,8 C 84 % 1010,0 hPa 0,0 l/m 12,1 km/h (2 Bft) S 180 6,7 C 5,7 C 7,0 km/h (2 Bft)
17.08.2019 03:42 9,3 C 8,1 C 84 % 1010,0 hPa 0,0 l/m 13,8 km/h (3 Bft) S 180 6,7 C 4,8 C 7,0 km/h (2 Bft)
17.08.2019 03:40 9,5 C 8,4 C 84 % 1010,0 hPa 0,0 l/m 14,2 km/h (3 Bft) S-SO 157 6,9 C 4,9 C 8,2 km/h (2 Bft)
17.08.2019 03:38 9,5 C 8,5 C 84 % 1010,0 hPa 0,0 l/m 15,2 km/h (3 Bft) W-SW 247 6,9 C 4,4 C 15,9 km/h (3 Bft)
17.08.2019 03:36 9,5 C 8,5 C 84 % 1010,0 hPa 0,0 l/m 14,2 km/h (3 Bft) W-SW 247 6,9 C 4,9 C 21,2 km/h (4 Bft)
17.08.2019 03:34 9,5 C 8,6 C 84 % 1010,1 hPa 0,0 l/m 13,5 km/h (3 Bft) W-SW 247 6,9 C 5,2 C 22,7 km/h (4 Bft)
17.08.2019 03:32 9,5 C 8,6 C 84 % 1010,1 hPa 0,0 l/m 13,3 km/h (3 Bft) W-SW 247 6,9 C 5,3 C 19,6 km/h (3 Bft)
17.08.2019 03:30 9,6 C 8,6 C 84 % 1010,1 hPa 0,0 l/m 12,6 km/h (3 Bft) SW 225 7,0 C 5,8 C 14,2 km/h (3 Bft)
17.08.2019 03:28 9,6 C 8,6 C 84 % 1010,1 hPa 0,0 l/m 12,6 km/h (3 Bft) W-SW 247 7,0 C 5,8 C 22,7 km/h (4 Bft)
17.08.2019 03:26 9,6 C 8,5 C 84 % 1010,1 hPa 0,0 l/m 11,3 km/h (2 Bft) W-SW 247 7,0 C 6,4 C 15,9 km/h (3 Bft)
17.08.2019 03:24 9,6 C 8,5 C 84 % 1010,1 hPa 0,0 l/m 10,6 km/h (2 Bft) SW 225 7,0 C 6,8 C 14,2 km/h (3 Bft)
17.08.2019 03:22 9,6 C 8,6 C 84 % 1010,1 hPa 0,0 l/m 9,7 km/h (2 Bft) W-SW 247 7,0 C 7,3 C 13,8 km/h (3 Bft)
17.08.2019 03:20 9,6 C 8,6 C 84 % 1010,1 hPa 0,0 l/m 9,4 km/h (2 Bft) W-SW 247 7,0 C 7,5 C 14,7 km/h (3 Bft)
17.08.2019 03:18 9,6 C 8,5 C 84 % 1010,1 hPa 0,0 l/m 8,9 km/h (2 Bft) SW 225 7,0 C 7,8 C 7,7 km/h (2 Bft)
17.08.2019 03:16 9,6 C 8,3 C 84 % 1010,1 hPa 0,0 l/m 9,7 km/h (2 Bft) S 180 7,0 C 7,3 C 6,8 km/h (2 Bft)
17.08.2019 03:14 9,7 C 8,1 C 84 % 1010,3 hPa 0,0 l/m 10,9 km/h (2 Bft) SW 225 7,1 C 6,8 C 11,6 km/h (2 Bft)
17.08.2019 03:12 9,9 C 8,8 C 84 % 1010,3 hPa 0,0 l/m 15,2 km/h (3 Bft) W 270 7,3 C 4,9 C 15,9 km/h (3 Bft)
17.08.2019 03:10 9,9 C 8,8 C 84 % 1010,3 hPa 0,0 l/m 15,2 km/h (3 Bft) W 270 7,3 C 4,9 C 15,9 km/h (3 Bft)
17.08.2019 03:08 9,9 C 8,8 C 84 % 1010,3 hPa 0,0 l/m 15,2 km/h (3 Bft) W 270 7,3 C 4,9 C 15,9 km/h (3 Bft)
17.08.2019 03:06 9,9 C 8,8 C 84 % 1010,3 hPa 0,0 l/m 15,2 km/h (3 Bft) W 270 7,3 C 4,9 C 15,9 km/h (3 Bft)
17.08.2019 03:04 9,9 C 8,8 C 84 % 1010,3 hPa 0,0 l/m 15,2 km/h (3 Bft) W 270 7,3 C 4,9 C 15,9 km/h (3 Bft)
17.08.2019 03:02 9,9 C 8,8 C 84 % 1010,3 hPa 0,0 l/m 15,2 km/h (3 Bft) W 270 7,3 C 4,9 C 15,9 km/h (3 Bft)
17.08.2019 03:00 9,9 C 8,8 C 84 % 1010,3 hPa 0,0 l/m 15,0 km/h (3 Bft) W-SW 247 7,3 C 5,0 C 16,7 km/h (3 Bft)
17.08.2019 02:58 9,9 C 8,8 C 84 % 1010,3 hPa 0,0 l/m 14,7 km/h (3 Bft) SW 225 7,3 C 5,1 C 17,9 km/h (3 Bft)
17.08.2019 02:56 9,9 C 8,9 C 84 % 1010,3 hPa 0,0 l/m 14,2 km/h (3 Bft) W-SW 247 7,3 C 5,4 C 16,2 km/h (3 Bft)
17.08.2019 02:54 9,9 C 8,8 C 84 % 1010,4 hPa 0,0 l/m 14,5 km/h (3 Bft) W-SW 247 7,3 C 5,2 C 22,2 km/h (4 Bft)
17.08.2019 02:52 9,9 C 8,9 C 84 % 1010,4 hPa 0,0 l/m 14,0 km/h (3 Bft) W-SW 247 7,3 C 5,4 C 20,8 km/h (4 Bft)
17.08.2019 02:50 9,9 C 8,9 C 84 % 1010,4 hPa 0,0 l/m 13,3 km/h (3 Bft) W-SW 247 7,3 C 5,8 C 14,2 km/h (3 Bft)
17.08.2019 02:48 9,9 C 8,9 C 84 % 1010,4 hPa 0,0 l/m 13,0 km/h (3 Bft) W-SW 247 7,3 C 5,9 C 20,0 km/h (4 Bft)
17.08.2019 02:46 9,8 C 8,8 C 84 % 1010,4 hPa 0,0 l/m 10,9 km/h (2 Bft) W-SW 247 7,2 C 6,9 C 10,6 km/h (2 Bft)
17.08.2019 02:44 9,8 C 8,6 C 84 % 1010,4 hPa 0,0 l/m 8,9 km/h (2 Bft) W-SW 247 7,2 C 8,0 C 19,8 km/h (3 Bft)
17.08.2019 02:42 9,7 C 8,1 C 84 % 1010,4 hPa 0,0 l/m 7,5 km/h (2 Bft) SW 225 7,1 C 8,9 C 16,9 km/h (3 Bft)
17.08.2019 02:40 9,7 C 8,3 C 84 % 1010,4 hPa 0,0 l/m 6,3 km/h (2 Bft) W-SW 247 7,1 C 9,7 C 11,3 km/h (2 Bft)
17.08.2019 02:38 9,8 C 7,9 C 84 % 1010,4 hPa 0,0 l/m 6,0 km/h (2 Bft) S 180 7,2 C 9,8 C 12,6 km/h (3 Bft)
17.08.2019 02:36 9,9 C 8,1 C 84 % 1010,4 hPa 0,0 l/m 6,5 km/h (2 Bft) S-SW 202 7,3 C 9,9 C 4,6 km/h (1 Bft)
17.08.2019 02:34 9,9 C 8,1 C 84 % 1010,4 hPa 0,0 l/m 7,0 km/h (2 Bft) W-SW 247 7,3 C 9,5 C 8,4 km/h (2 Bft)
17.08.2019 02:32 10,0 C 8,4 C 84 % 1010,4 hPa 0,0 l/m 8,2 km/h (2 Bft) SW 225 7,4 C 8,7 C 6,3 km/h (2 Bft)
17.08.2019 02:30 10,0 C 8,5 C 84 % 1010,4 hPa 0,0 l/m 9,7 km/h (2 Bft) S-SW 202 7,4 C 7,8 C 5,8 km/h (2 Bft)
17.08.2019 02:28 10,0 C 8,6 C 84 % 1010,4 hPa 0,0 l/m 11,6 km/h (2 Bft) SW 225 7,4 C 6,7 C 8,2 km/h (2 Bft)
17.08.2019 02:26 10,1 C 8,5 C 84 % 1010,4 hPa 0,0 l/m 12,6 km/h (3 Bft) S-SW 202 7,5 C 6,3 C 11,3 km/h (2 Bft)
17.08.2019 02:24 10,1 C 8,7 C 84 % 1010,4 hPa 0,0 l/m 13,3 km/h (3 Bft) O-NO 67 7,5 C 6,0 C 19,3 km/h (3 Bft)
17.08.2019 02:22 10,2 C 8,9 C 84 % 1010,4 hPa 0,0 l/m 14,2 km/h (3 Bft) W-SW 247 7,6 C 5,7 C 15,4 km/h (3 Bft)
17.08.2019 02:20 10,2 C 9,0 C 84 % 1010,4 hPa 0,0 l/m 13,8 km/h (3 Bft) W-SW 247 7,6 C 5,9 C 15,7 km/h (3 Bft)
17.08.2019 02:18 10,2 C 9,2 C 84 % 1010,4 hPa 0,0 l/m 14,2 km/h (3 Bft) SW 225 7,6 C 5,7 C 12,6 km/h (3 Bft)
17.08.2019 02:16 10,2 C 9,1 C 84 % 1010,4 hPa 0,0 l/m 13,8 km/h (3 Bft) W-SW 247 7,6 C 5,9 C 16,7 km/h (3 Bft)
17.08.2019 02:14 10,2 C 9,1 C 84 % 1010,6 hPa 0,0 l/m 13,3 km/h (3 Bft) SW 225 7,6 C 6,1 C 17,1 km/h (3 Bft)
17.08.2019 02:12 10,1 C 9,1 C 84 % 1010,6 hPa 0,0 l/m 13,3 km/h (3 Bft) W-SW 247 7,5 C 6,0 C 14,2 km/h (3 Bft)
17.08.2019 02:10 10,1 C 9,1 C 84 % 1010,6 hPa 0,0 l/m 12,3 km/h (3 Bft) W-SW 247 7,5 C 6,5 C 13,8 km/h (3 Bft)
17.08.2019 02:08 10,0 C 9,0 C 84 % 1010,6 hPa 0,0 l/m 12,1 km/h (2 Bft) SW 225 7,4 C 6,5 C 16,2 km/h (3 Bft)
17.08.2019 02:06 10,0 C 8,9 C 84 % 1010,6 hPa 0,0 l/m 11,1 km/h (2 Bft) SW 225 7,4 C 7,0 C 13,0 km/h (3 Bft)
17.08.2019 02:04 10,0 C 8,9 C 84 % 1010,6 hPa 0,0 l/m 10,4 km/h (2 Bft) SW 225 7,4 C 7,4 C 12,6 km/h (3 Bft)
17.08.2019 02:02 10,0 C 8,8 C 84 % 1010,6 hPa 0,0 l/m 10,4 km/h (2 Bft) SW 225 7,4 C 7,4 C 13,0 km/h (3 Bft)
17.08.2019 02:00 10,0 C 8,8 C 84 % 1010,6 hPa 0,0 l/m 10,6 km/h (2 Bft) SW 225 7,4 C 7,3 C 11,8 km/h (2 Bft)
17.08.2019 01:58 10,0 C 8,9 C 84 % 1010,6 hPa 0,0 l/m 10,6 km/h (2 Bft) SW 225 7,4 C 7,3 C 10,1 km/h (2 Bft)
17.08.2019 01:56 10,0 C 8,9 C 84 % 1010,6 hPa 0,0 l/m 11,1 km/h (2 Bft) SW 225 7,4 C 7,0 C 11,6 km/h (2 Bft)
17.08.2019 01:54 10,0 C 8,9 C 84 % 1010,8 hPa 0,0 l/m 11,6 km/h (2 Bft) S 180 7,4 C 6,7 C 10,4 km/h (2 Bft)
17.08.2019 01:52 10,0 C 9,0 C 84 % 1010,8 hPa 0,0 l/m 12,3 km/h (3 Bft) SW 225 7,4 C 6,4 C 12,8 km/h (3 Bft)
17.08.2019 01:50 10,1 C 9,0 C 84 % 1010,8 hPa 0,0 l/m 12,6 km/h (3 Bft) SW 225 7,5 C 6,3 C 11,6 km/h (2 Bft)
17.08.2019 01:48 10,0 C 9,0 C 84 % 1010,8 hPa 0,0 l/m 12,6 km/h (3 Bft) SW 225 7,4 C 6,2 C 12,3 km/h (3 Bft)
17.08.2019 01:46 10,0 C 9,1 C 84 % 1010,8 hPa 0,0 l/m 12,8 km/h (3 Bft) W-SW 247 7,4 C 6,1 C 13,0 km/h (3 Bft)
17.08.2019 01:44 10,0 C 9,1 C 84 % 1010,8 hPa 0,0 l/m 12,8 km/h (3 Bft) W-SW 247 7,4 C 6,1 C 16,7 km/h (3 Bft)
17.08.2019 01:42 10,0 C 9,1 C 84 % 1010,8 hPa 0,0 l/m 12,3 km/h (3 Bft) W-SW 247 7,4 C 6,4 C 15,2 km/h (3 Bft)
17.08.2019 01:40 10,0 C 9,0 C 84 % 1010,8 hPa 0,0 l/m 11,8 km/h (2 Bft) SW 225 7,4 C 6,6 C 12,8 km/h (3 Bft)
17.08.2019 01:38 10,0 C 9,0 C 84 % 1010,8 hPa 0,0 l/m 11,6 km/h (2 Bft) W-SW 247 7,4 C 6,7 C 12,6 km/h (3 Bft)
17.08.2019 01:36 10,0 C 9,0 C 84 % 1010,8 hPa 0,0 l/m 11,1 km/h (2 Bft) SW 225 7,4 C 7,0 C 15,2 km/h (3 Bft)
17.08.2019 01:34 10,0 C 9,0 C 84 % 1010,9 hPa 0,0 l/m 10,6 km/h (2 Bft) SW 225 7,4 C 7,3 C 13,8 km/h (3 Bft)
17.08.2019 01:32 10,0 C 9,0 C 84 % 1010,9 hPa 0,0 l/m 10,1 km/h (2 Bft) W-SW 247 7,4 C 7,5 C 10,1 km/h (2 Bft)
17.08.2019 01:30 9,9 C 9,0 C 84 % 1010,9 hPa 0,0 l/m 9,9 km/h (2 Bft) SW 225 7,3 C 7,5 C 10,9 km/h (2 Bft)
17.08.2019 01:28 9,9 C 8,9 C 84 % 1010,9 hPa 0,0 l/m 9,9 km/h (2 Bft) SW 225 7,3 C 7,5 C 11,3 km/h (2 Bft)
17.08.2019 01:26 9,9 C 8,9 C 84 % 1010,9 hPa 0,0 l/m 9,7 km/h (2 Bft) SW 225 7,3 C 7,7 C 11,6 km/h (2 Bft)
17.08.2019 01:24 9,9 C 8,9 C 84 % 1010,9 hPa 0,0 l/m 9,7 km/h (2 Bft) W-SW 247 7,3 C 7,7 C 10,6 km/h (2 Bft)
17.08.2019 01:22 9,9 C 8,9 C 84 % 1010,9 hPa 0,0 l/m 9,4 km/h (2 Bft) W-SW 247 7,3 C 7,8 C 10,4 km/h (2 Bft)
17.08.2019 01:20 9,9 C 8,9 C 84 % 1010,9 hPa 0,0 l/m 9,4 km/h (2 Bft) SW 225 7,3 C 7,8 C 11,1 km/h (2 Bft)
17.08.2019 01:18 9,9 C 8,9 C 84 % 1010,9 hPa 0,0 l/m 9,2 km/h (2 Bft) SW 225 7,3 C 8,0 C 9,9 km/h (2 Bft)
17.08.2019 01:16 10,0 C 9,0 C 83 % 1010,9 hPa 0,0 l/m 9,2 km/h (2 Bft) W-SW 247 7,2 C 8,1 C 10,4 km/h (2 Bft)
17.08.2019 01:14 10,0 C 8,9 C 83 % 1011,1 hPa 0,0 l/m 9,2 km/h (2 Bft) SW 225 7,2 C 8,1 C 12,3 km/h (3 Bft)
17.08.2019 01:12 10,0 C 8,9 C 83 % 1011,1 hPa 0,0 l/m 8,9 km/h (2 Bft) SW 225 7,2 C 8,3 C 8,7 km/h (2 Bft)
17.08.2019 01:10 10,0 C 8,9 C 83 % 1011,1 hPa 0,0 l/m 9,2 km/h (2 Bft) SW 225 7,2 C 8,1 C 9,4 km/h (2 Bft)
17.08.2019 01:08 10,0 C 8,9 C 83 % 1011,1 hPa 0,0 l/m 9,2 km/h (2 Bft) SW 225 7,2 C 8,1 C 8,4 km/h (2 Bft)
17.08.2019 01:06 10,0 C 9,0 C 83 % 1011,1 hPa 0,0 l/m 9,4 km/h (2 Bft) SW 225 7,2 C 8,0 C 11,1 km/h (2 Bft)
17.08.2019 01:04 10,1 C 9,0 C 83 % 1011,1 hPa 0,0 l/m 9,2 km/h (2 Bft) SW 225 7,3 C 8,2 C 10,6 km/h (2 Bft)
17.08.2019 01:02 10,1 C 9,0 C 83 % 1011,1 hPa 0,0 l/m 9,2 km/h (2 Bft) W-SW 247 7,3 C 8,2 C 10,1 km/h (2 Bft)
17.08.2019 01:00 10,1 C 9,0 C 83 % 1011,1 hPa 0,0 l/m 9,4 km/h (2 Bft) SW 225 7,3 C 8,1 C 9,7 km/h (2 Bft)
17.08.2019 00:58 10,2 C 9,0 C 83 % 1011,1 hPa 0,0 l/m 9,4 km/h (2 Bft) S-SW 202 7,4 C 8,2 C 10,4 km/h (2 Bft)
17.08.2019 00:56 10,2 C 9,1 C 83 % 1011,1 hPa 0,0 l/m 9,4 km/h (2 Bft) SW 225 7,4 C 8,2 C 10,4 km/h (2 Bft)
17.08.2019 00:54 10,2 C 9,1 C 83 % 1011,1 hPa 0,0 l/m 9,4 km/h (2 Bft) S 180 7,4 C 8,2 C 8,4 km/h (2 Bft)
17.08.2019 00:52 10,3 C 9,1 C 83 % 1011,1 hPa 0,0 l/m 9,9 km/h (2 Bft) W-SW 247 7,5 C 8,0 C 9,7 km/h (2 Bft)
17.08.2019 00:50 10,3 C 9,2 C 83 % 1011,1 hPa 0,0 l/m 9,9 km/h (2 Bft) W-SW 247 7,5 C 8,0 C 10,4 km/h (2 Bft)
17.08.2019 00:48 10,3 C 9,2 C 83 % 1011,1 hPa 0,0 l/m 9,7 km/h (2 Bft) W-SW 247 7,5 C 8,1 C 10,9 km/h (2 Bft)
17.08.2019 00:46 10,3 C 9,0 C 83 % 1011,1 hPa 0,0 l/m 9,4 km/h (2 Bft) SW 225 7,5 C 8,3 C 8,4 km/h (2 Bft)
17.08.2019 00:44 10,3 C 9,1 C 83 % 1011,1 hPa 0,0 l/m 9,4 km/h (2 Bft) SW 225 7,5 C 8,3 C 14,2 km/h (3 Bft)
17.08.2019 00:42 10,4 C 9,3 C 83 % 1011,1 hPa 0,0 l/m 9,4 km/h (2 Bft) SW 225 7,6 C 8,4 C 14,2 km/h (3 Bft)
17.08.2019 00:40 10,4 C 9,2 C 83 % 1011,1 hPa 0,0 l/m 8,9 km/h (2 Bft) SW 225 7,6 C 8,7 C 10,9 km/h (2 Bft)
17.08.2019 00:38 10,4 C 9,2 C 83 % 1011,1 hPa 0,0 l/m 8,9 km/h (2 Bft) W-SW 247 7,6 C 8,7 C 9,4 km/h (2 Bft)
17.08.2019 00:36 10,5 C 9,2 C 83 % 1011,1 hPa 0,0 l/m 9,2 km/h (2 Bft) SW 225 7,7 C 8,6 C 10,6 km/h (2 Bft)
17.08.2019 00:34 10,5 C 9,2 C 83 % 1011,2 hPa 0,0 l/m 9,2 km/h (2 Bft) W-SW 247 7,7 C 8,6 C 8,4 km/h (2 Bft)
17.08.2019 00:32 10,5 C 9,3 C 83 % 1011,2 hPa 0,0 l/m 9,4 km/h (2 Bft) W-SW 247 7,7 C 8,5 C 9,7 km/h (2 Bft)
17.08.2019 00:30 10,5 C 9,3 C 83 % 1011,2 hPa 0,0 l/m 9,2 km/h (2 Bft) W-SW 247 7,7 C 8,6 C 10,6 km/h (2 Bft)
17.08.2019 00:28 10,5 C 9,3 C 83 % 1011,2 hPa 0,0 l/m 8,9 km/h (2 Bft) SW 225 7,7 C 8,8 C 10,1 km/h (2 Bft)
17.08.2019 00:26 10,6 C 9,3 C 83 % 1011,2 hPa 0,0 l/m 9,2 km/h (2 Bft) SW 225 7,8 C 8,7 C 9,2 km/h (2 Bft)
17.08.2019 00:24 10,6 C 9,4 C 83 % 1011,2 hPa 0,0 l/m 9,2 km/h (2 Bft) SW 225 7,8 C 8,7 C 12,1 km/h (2 Bft)
17.08.2019 00:22 10,6 C 9,3 C 82 % 1011,2 hPa 0,0 l/m 8,9 km/h (2 Bft) SW 225 7,7 C 8,9 C 10,6 km/h (2 Bft)
17.08.2019 00:20 10,6 C 9,4 C 82 % 1011,2 hPa 0,0 l/m 8,9 km/h (2 Bft) S-SW 202 7,7 C 8,9 C 7,2 km/h (2 Bft)
17.08.2019 00:18 10,6 C 9,5 C 82 % 1011,2 hPa 0,0 l/m 9,2 km/h (2 Bft) W-SW 247 7,7 C 8,7 C 9,9 km/h (2 Bft)
17.08.2019 00:16 10,6 C 9,4 C 82 % 1011,2 hPa 0,0 l/m 8,9 km/h (2 Bft) SW 225 7,7 C 8,9 C 10,1 km/h (2 Bft)
17.08.2019 00:14 10,6 C 9,5 C 82 % 1011,4 hPa 0,0 l/m 8,9 km/h (2 Bft) SW 225 7,7 C 8,9 C 10,6 km/h (2 Bft)
17.08.2019 00:12 10,6 C 9,2 C 82 % 1011,4 hPa 0,0 l/m 6,5 km/h (2 Bft) SW 225 7,7 C 10,6 C 7,2 km/h (2 Bft)
17.08.2019 00:10 10,6 C 9,2 C 82 % 1011,4 hPa 0,0 l/m 6,5 km/h (2 Bft) SW 225 7,7 C 10,6 C 7,2 km/h (2 Bft)
17.08.2019 00:08 10,6 C 9,2 C 82 % 1011,4 hPa 0,0 l/m 6,5 km/h (2 Bft) SW 225 7,7 C 10,6 C 7,2 km/h (2 Bft)
17.08.2019 00:06 10,6 C 9,2 C 82 % 1011,4 hPa 0,0 l/m 6,5 km/h (2 Bft) SW 225 7,7 C 10,6 C 7,2 km/h (2 Bft)
17.08.2019 00:04 10,6 C 9,2 C 82 % 1011,4 hPa 0,0 l/m 6,5 km/h (2 Bft) SW 225 7,7 C 10,6 C 7,2 km/h (2 Bft)
17.08.2019 00:02 10,6 C 9,2 C 82 % 1011,4 hPa 0,0 l/m 6,5 km/h (2 Bft) SW 225 7,7 C 10,6 C 7,2 km/h (2 Bft)
17.08.2019 00:00 10,6 C 9,2 C 82 % 1011,4 hPa 0,0 l/m 6,5 km/h (2 Bft) W-SW 247 7,7 C 10,6 C 6,3 km/h (2 Bft)
16.08.2019 23:58 10,6 C 9,2 C 82 % 1011,4 hPa 0,0 l/m 7,0 km/h (2 Bft) SW 225 7,7 C 10,2 C 8,0 km/h (2 Bft)
16.08.2019 23:56 10,6 C 9,3 C 82 % 1011,4 hPa 0,0 l/m 7,2 km/h (2 Bft) W-SW 247 7,7 C 10,0 C 7,7 km/h (2 Bft)
16.08.2019 23:54 10,6 C 9,3 C 81 % 1011,4 hPa 0,0 l/m 7,5 km/h (2 Bft) S-SW 202 7,5 C 9,8 C 6,3 km/h (2 Bft)
16.08.2019 23:52 10,7 C 9,2 C 81 % 1011,4 hPa 0,0 l/m 7,5 km/h (2 Bft) SW 225 7,6 C 9,9 C 6,8 km/h (2 Bft)
16.08.2019 23:50 10,7 C 9,2 C 81 % 1011,4 hPa 0,0 l/m 7,7 km/h (2 Bft) O-NO 67 7,6 C 9,8 C 7,5 km/h (2 Bft)
16.08.2019 23:48 10,7 C 9,1 C 81 % 1011,4 hPa 0,0 l/m 8,0 km/h (2 Bft) SW 225 7,6 C 9,6 C 8,0 km/h (2 Bft)
16.08.2019 23:46 10,8 C 9,0 C 81 % 1011,4 hPa 0,0 l/m 8,0 km/h (2 Bft) SW 225 7,7 C 9,7 C 6,8 km/h (2 Bft)
16.08.2019 23:44 10,8 C 9,0 C 81 % 1011,4 hPa 0,0 l/m 8,0 km/h (2 Bft) SW 225 7,7 C 9,7 C 11,1 km/h (2 Bft)
16.08.2019 23:42 10,8 C 9,2 C 81 % 1011,4 hPa 0,0 l/m 8,0 km/h (2 Bft) S 180 7,7 C 9,7 C 7,7 km/h (2 Bft)
16.08.2019 23:40 10,9 C 9,2 C 81 % 1011,4 hPa 0,0 l/m 8,0 km/h (2 Bft) SW 225 7,8 C 9,8 C 8,7 km/h (2 Bft)
16.08.2019 23:38 10,9 C 9,2 C 81 % 1011,4 hPa 0,0 l/m 7,7 km/h (2 Bft) SW 225 7,8 C 10,0 C 8,9 km/h (2 Bft)
16.08.2019 23:36 11,0 C 9,4 C 81 % 1011,4 hPa 0,0 l/m 7,7 km/h (2 Bft) S-SW 202 7,9 C 10,1 C 8,9 km/h (2 Bft)
16.08.2019 23:34 11,0 C 9,4 C 81 % 1011,8 hPa 0,0 l/m 7,7 km/h (2 Bft) SW 225 7,9 C 10,1 C 7,5 km/h (2 Bft)
16.08.2019 23:32 11,0 C 9,4 C 81 % 1011,8 hPa 0,0 l/m 7,7 km/h (2 Bft) S 180 7,9 C 10,1 C 8,4 km/h (2 Bft)
16.08.2019 23:30 11,0 C 9,4 C 81 % 1011,8 hPa 0,0 l/m 7,7 km/h (2 Bft) S-SW 202 7,9 C 10,1 C 7,7 km/h (2 Bft)
16.08.2019 23:28 11,1 C 9,4 C 80 % 1011,8 hPa 0,0 l/m 7,7 km/h (2 Bft) SW 225 7,8 C 10,2 C 8,2 km/h (2 Bft)
16.08.2019 23:26 11,1 C 9,5 C 80 % 1011,8 hPa 0,0 l/m 7,5 km/h (2 Bft) SW 225 7,8 C 10,3 C 8,9 km/h (2 Bft)
16.08.2019 23:24 11,2 C 9,3 C 80 % 1011,8 hPa 0,0 l/m 7,5 km/h (2 Bft) S 180 7,9 C 10,4 C 8,2 km/h (2 Bft)
16.08.2019 23:22 11,2 C 9,3 C 80 % 1011,8 hPa 0,0 l/m 7,5 km/h (2 Bft) SW 225 7,9 C 10,4 C 7,5 km/h (2 Bft)
16.08.2019 23:20 11,2 C 9,5 C 80 % 1011,8 hPa 0,0 l/m 7,5 km/h (2 Bft) SW 225 7,9 C 10,4 C 9,4 km/h (2 Bft)
16.08.2019 23:18 11,2 C 9,5 C 80 % 1011,8 hPa 0,0 l/m 7,2 km/h (2 Bft) S-SW 202 7,9 C 10,6 C 8,9 km/h (2 Bft)
16.08.2019 23:16 11,3 C 9,4 C 80 % 1011,8 hPa 0,0 l/m 7,2 km/h (2 Bft) SW 225 8,0 C 10,8 C 8,0 km/h (2 Bft)
16.08.2019 23:14 11,3 C 9,5 C 80 % 1011,8 hPa 0,0 l/m 7,0 km/h (2 Bft) S-SW 202 8,0 C 10,9 C 8,0 km/h (2 Bft)
16.08.2019 23:12 11,4 C 9,5 C 80 % 1011,8 hPa 0,0 l/m 6,8 km/h (2 Bft) S-SW 202 8,1 C 11,1 C 7,7 km/h (2 Bft)
16.08.2019 23:10 11,4 C 9,6 C 80 % 1011,8 hPa 0,0 l/m 6,3 km/h (2 Bft) SW 225 8,1 C 11,4 C 7,0 km/h (2 Bft)
16.08.2019 23:08 11,4 C 9,6 C 80 % 1011,8 hPa 0,0 l/m 6,5 km/h (2 Bft) SW 225 8,1 C 11,4 C 7,2 km/h (2 Bft)
16.08.2019 23:06 11,5 C 9,5 C 80 % 1011,8 hPa 0,0 l/m 6,8 km/h (2 Bft) S-SW 202 8,2 C 11,2 C 7,5 km/h (2 Bft)
16.08.2019 23:04 11,5 C 9,6 C 80 % 1011,8 hPa 0,0 l/m 7,0 km/h (2 Bft) S-SW 202 8,2 C 11,1 C 7,0 km/h (2 Bft)
16.08.2019 23:02 11,5 C 9,7 C 80 % 1011,8 hPa 0,0 l/m 7,2 km/h (2 Bft) SW 225 8,2 C 11,0 C 7,2 km/h (2 Bft)
16.08.2019 23:00 11,6 C 9,8 C 80 % 1011,8 hPa 0,0 l/m 7,2 km/h (2 Bft) SW 225 8,3 C 11,1 C 7,0 km/h (2 Bft)
16.08.2019 22:58 11,6 C 9,8 C 80 % 1011,8 hPa 0,0 l/m 7,5 km/h (2 Bft) SW 225 8,3 C 10,9 C 7,5 km/h (2 Bft)
16.08.2019 22:56 11,6 C 9,9 C 80 % 1011,8 hPa 0,0 l/m 7,7 km/h (2 Bft) SW 225 8,3 C 10,7 C 8,2 km/h (2 Bft)
16.08.2019 22:54 11,6 C 9,9 C 80 % 1011,8 hPa 0,0 l/m 7,7 km/h (2 Bft) SW 225 8,3 C 10,7 C 8,7 km/h (2 Bft)
16.08.2019 22:52 11,6 C 9,8 C 80 % 1011,8 hPa 0,0 l/m 7,5 km/h (2 Bft) S 180 8,3 C 10,9 C 7,5 km/h (2 Bft)
16.08.2019 22:50 11,6 C 9,9 C 80 % 1011,8 hPa 0,0 l/m 7,5 km/h (2 Bft) W-SW 247 8,3 C 10,9 C 7,0 km/h (2 Bft)
16.08.2019 22:48 11,7 C 9,9 C 79 % 1011,8 hPa 0,0 l/m 7,7 km/h (2 Bft) SW 225 8,2 C 10,8 C 8,7 km/h (2 Bft)
16.08.2019 22:46 11,7 C 9,9 C 79 % 1011,8 hPa 0,0 l/m 7,5 km/h (2 Bft) SW 225 8,2 C 11,0 C 8,9 km/h (2 Bft)
16.08.2019 22:44 11,7 C 9,8 C 79 % 1011,8 hPa 0,0 l/m 7,2 km/h (2 Bft) SW 225 8,2 C 11,2 C 8,7 km/h (2 Bft)
16.08.2019 22:42 11,7 C 9,6 C 79 % 1011,8 hPa 0,0 l/m 7,0 km/h (2 Bft) S-SW 202 8,2 C 11,3 C 7,7 km/h (2 Bft)
16.08.2019 22:40 11,7 C 9,7 C 79 % 1011,8 hPa 0,0 l/m 7,0 km/h (2 Bft) W-SW 247 8,2 C 11,3 C 7,0 km/h (2 Bft)
16.08.2019 22:38 11,7 C 9,8 C 79 % 1011,8 hPa 0,0 l/m 6,8 km/h (2 Bft) SW 225 8,2 C 11,4 C 8,9 km/h (2 Bft)
16.08.2019 22:36 11,8 C 9,7 C 79 % 1011,8 hPa 0,0 l/m 6,5 km/h (2 Bft) S-SW 202 8,3 C 11,8 C 6,3 km/h (2 Bft)
16.08.2019 22:34 11,8 C 9,7 C 79 % 1011,8 hPa 0,0 l/m 6,3 km/h (2 Bft) SW 225 8,3 C 11,8 C 7,2 km/h (2 Bft)
16.08.2019 22:32 11,8 C 9,8 C 79 % 1011,8 hPa 0,0 l/m 6,3 km/h (2 Bft) SW 225 8,3 C 11,8 C 7,7 km/h (2 Bft)
16.08.2019 22:30 11,9 C 9,7 C 79 % 1011,8 hPa 0,0 l/m 6,5 km/h (2 Bft) SW 225 8,4 C 11,9 C 7,0 km/h (2 Bft)
16.08.2019 22:28 11,9 C 9,6 C 79 % 1011,8 hPa 0,0 l/m 6,8 km/h (2 Bft) S-SW 202 8,4 C 11,6 C 6,3 km/h (2 Bft)
16.08.2019 22:26 12,1 C 9,8 C 79 % 1011,8 hPa 0,0 l/m 7,0 km/h (2 Bft) S-SW 202 8,6 C 11,7 C 6,5 km/h (2 Bft)
16.08.2019 22:24 12,1 C 9,8 C 79 % 1011,8 hPa 0,0 l/m 7,2 km/h (2 Bft) W-SW 247 8,6 C 11,6 C 6,0 km/h (2 Bft)
16.08.2019 22:22 12,1 C 9,9 C 79 % 1011,8 hPa 0,0 l/m 7,5 km/h (2 Bft) SW 225 8,6 C 11,4 C 7,2 km/h (2 Bft)
16.08.2019 22:20 12,2 C 10,0 C 78 % 1011,8 hPa 0,0 l/m 7,5 km/h (2 Bft) SW 225 8,5 C 11,5 C 7,7 km/h (2 Bft)
16.08.2019 22:18 12,2 C 10,0 C 78 % 1011,8 hPa 0,0 l/m 7,5 km/h (2 Bft) S-SW 202 8,5 C 11,5 C 8,2 km/h (2 Bft)
16.08.2019 22:16 12,1 C 10,0 C 78 % 1011,8 hPa 0,0 l/m 7,5 km/h (2 Bft) SW 225 8,4 C 11,4 C 7,2 km/h (2 Bft)
16.08.2019 22:14 12,3 C 10,1 C 78 % 1011,8 hPa 0,0 l/m 7,7 km/h (2 Bft) SW 225 8,6 C 11,5 C 8,2 km/h (2 Bft)
16.08.2019 22:12 12,3 C 10,1 C 78 % 1011,8 hPa 0,0 l/m 7,5 km/h (2 Bft) SW 225 8,6 C 11,6 C 8,9 km/h (2 Bft)
16.08.2019 22:10 12,2 C 10,2 C 78 % 1011,8 hPa 0,0 l/m 7,2 km/h (2 Bft) W-SW 247 8,5 C 11,7 C 7,7 km/h (2 Bft)
16.08.2019 22:08 12,3 C 10,2 C 78 % 1011,8 hPa 0,0 l/m 7,2 km/h (2 Bft) SW 225 8,6 C 11,8 C 8,4 km/h (2 Bft)
16.08.2019 22:06 12,3 C 10,1 C 78 % 1011,8 hPa 0,0 l/m 7,2 km/h (2 Bft) W-SW 247 8,6 C 11,8 C 7,7 km/h (2 Bft)
16.08.2019 22:04 12,3 C 10,2 C 78 % 1011,8 hPa 0,0 l/m 7,0 km/h (2 Bft) SW 225 8,6 C 11,9 C 7,0 km/h (2 Bft)
16.08.2019 22:02 12,3 C 10,1 C 78 % 1011,8 hPa 0,0 l/m 6,8 km/h (2 Bft) SW 225 8,6 C 12,0 C 8,0 km/h (2 Bft)
16.08.2019 22:00 12,4 C 10,2 C 77 % 1011,8 hPa 0,0 l/m 6,8 km/h (2 Bft) N 360 8,5 C 12,1 C 7,5 km/h (2 Bft)
16.08.2019 21:58 12,4 C 10,3 C 77 % 1011,8 hPa 0,0 l/m 6,8 km/h (2 Bft) SW 225 8,5 C 12,1 C 8,4 km/h (2 Bft)
16.08.2019 21:56 12,4 C 10,0 C 77 % 1011,8 hPa 0,0 l/m 6,5 km/h (2 Bft) W-SW 247 8,5 C 12,4 C 6,8 km/h (2 Bft)
16.08.2019 21:54 12,5 C 10,1 C 77 % 1011,8 hPa 0,0 l/m 6,8 km/h (2 Bft) SW 225 8,6 C 12,2 C 6,3 km/h (2 Bft)
16.08.2019 21:52 12,5 C 10,0 C 77 % 1011,8 hPa 0,0 l/m 7,2 km/h (2 Bft) SW 225 8,6 C 12,0 C 7,2 km/h (2 Bft)
16.08.2019 21:50 12,5 C 10,3 C 77 % 1011,8 hPa 0,0 l/m 7,5 km/h (2 Bft) SW 225 8,6 C 11,8 C 7,0 km/h (2 Bft)
16.08.2019 21:48 12,6 C 10,3 C 77 % 1011,8 hPa 0,0 l/m 7,5 km/h (2 Bft) SW 225 8,7 C 11,9 C 8,0 km/h (2 Bft)
16.08.2019 21:46 12,6 C 10,4 C 77 % 1011,8 hPa 0,0 l/m 7,5 km/h (2 Bft) SW 225 8,7 C 11,9 C 6,8 km/h (2 Bft)
16.08.2019 21:44 12,6 C 10,7 C 77 % 1011,8 hPa 0,0 l/m 7,5 km/h (2 Bft) SW 225 8,7 C 11,9 C 8,0 km/h (2 Bft)
16.08.2019 21:42 12,6 C 10,6 C 77 % 1011,8 hPa 0,0 l/m 7,5 km/h (2 Bft) W-SW 247 8,7 C 11,9 C 9,2 km/h (2 Bft)
16.08.2019 21:40 12,7 C 10,6 C 77 % 1011,8 hPa 0,0 l/m 7,5 km/h (2 Bft) W-SW 247 8,8 C 12,0 C 8,4 km/h (2 Bft)
16.08.2019 21:38 12,7 C 10,5 C 77 % 1011,8 hPa 0,0 l/m 7,5 km/h (2 Bft) SW 225 8,8 C 12,0 C 6,5 km/h (2 Bft)
16.08.2019 21:36 12,7 C 10,7 C 77 % 1011,8 hPa 0,0 l/m 7,7 km/h (2 Bft) SW 225 8,8 C 11,9 C 7,7 km/h (2 Bft)
16.08.2019 21:34 12,9 C 10,7 C 77 % 1011,9 hPa 0,0 l/m 7,7 km/h (2 Bft) SW 225 9,0 C 12,1 C 6,8 km/h (2 Bft)
16.08.2019 21:32 12,9 C 10,7 C 77 % 1011,9 hPa 0,0 l/m 7,7 km/h (2 Bft) SW 225 9,0 C 12,1 C 8,2 km/h (2 Bft)
16.08.2019 21:30 12,9 C 10,7 C 77 % 1011,9 hPa 0,0 l/m 7,5 km/h (2 Bft) W-SW 247 9,0 C 12,2 C 8,7 km/h (2 Bft)
16.08.2019 21:28 13,0 C 10,7 C 76 % 1011,9 hPa 0,0 l/m 7,5 km/h (2 Bft) W-SW 247 8,9 C 12,3 C 8,7 km/h (2 Bft)
16.08.2019 21:26 13,0 C 10,7 C 76 % 1011,9 hPa 0,0 l/m 7,5 km/h (2 Bft) W-SW 247 8,9 C 12,3 C 7,7 km/h (2 Bft)
16.08.2019 21:24 13,0 C 10,5 C 76 % 1011,9 hPa 0,0 l/m 7,2 km/h (2 Bft) W-SW 247 8,9 C 12,5 C 8,0 km/h (2 Bft)
16.08.2019 21:22 13,0 C 10,4 C 76 % 1011,9 hPa 0,0 l/m 7,0 km/h (2 Bft) W-SW 247 8,9 C 12,6 C 7,5 km/h (2 Bft)
16.08.2019 21:20 13,0 C 10,5 C 76 % 1011,9 hPa 0,0 l/m 7,0 km/h (2 Bft) W-SW 247 8,9 C 12,6 C 7,7 km/h (2 Bft)
16.08.2019 21:18 13,1 C 10,5 C 76 % 1011,9 hPa 0,0 l/m 6,8 km/h (2 Bft) W-SW 247 9,0 C 12,9 C 7,7 km/h (2 Bft)
16.08.2019 21:16 13,1 C 10,4 C 76 % 1011,9 hPa 0,0 l/m 6,8 km/h (2 Bft) SW 225 9,0 C 12,9 C 7,2 km/h (2 Bft)
16.08.2019 21:14 13,1 C 10,6 C 76 % 1011,9 hPa 0,0 l/m 6,8 km/h (2 Bft) SW 225 9,0 C 12,9 C 7,5 km/h (2 Bft)
16.08.2019 21:12 13,1 C 10,4 C 76 % 1011,9 hPa 0,0 l/m 6,8 km/h (2 Bft) W-SW 247 9,0 C 12,9 C 7,2 km/h (2 Bft)
16.08.2019 21:10 13,0 C 10,4 C 76 % 1011,9 hPa 0,0 l/m 6,8 km/h (2 Bft) W-SW 247 8,9 C 12,8 C 6,8 km/h (2 Bft)
16.08.2019 21:08 13,1 C 10,5 C 76 % 1011,9 hPa 0,0 l/m 6,8 km/h (2 Bft) W-SW 247 9,0 C 12,9 C 6,5 km/h (2 Bft)
16.08.2019 21:06 13,2 C 10,7 C 76 % 1011,9 hPa 0,0 l/m 6,8 km/h (2 Bft) W-SW 247 9,1 C 13,0 C 7,2 km/h (2 Bft)
16.08.2019 21:04 13,3 C 10,8 C 76 % 1011,9 hPa 0,0 l/m 7,0 km/h (2 Bft) W-SW 247 9,2 C 12,9 C 7,0 km/h (2 Bft)
16.08.2019 21:02 13,3 C 10,9 C 76 % 1011,9 hPa 0,0 l/m 6,8 km/h (2 Bft) SW 225 9,2 C 13,1 C 7,5 km/h (2 Bft)
16.08.2019 21:00 13,3 C 10,9 C 76 % 1011,9 hPa 0,0 l/m 6,8 km/h (2 Bft) S-SW 202 9,2 C 13,1 C 6,5 km/h (2 Bft)
16.08.2019 20:58 13,3 C 10,7 C 76 % 1011,9 hPa 0,0 l/m 7,0 km/h (2 Bft) SW 225 9,2 C 12,9 C 7,2 km/h (2 Bft)
16.08.2019 20:56 13,2 C 10,7 C 76 % 1011,9 hPa 0,0 l/m 7,0 km/h (2 Bft) SW 225 9,1 C 12,8 C 7,0 km/h (2 Bft)
16.08.2019 20:54 13,2 C 10,6 C 75 % 1011,8 hPa 0,0 l/m 6,8 km/h (2 Bft) W-SW 247 8,9 C 13,0 C 8,0 km/h (2 Bft)
16.08.2019 20:52 13,3 C 10,7 C 75 % 1011,8 hPa 0,0 l/m 6,8 km/h (2 Bft) W-SW 247 9,0 C 13,1 C 6,5 km/h (2 Bft)
16.08.2019 20:50 13,3 C 10,9 C 75 % 1011,8 hPa 0,0 l/m 7,0 km/h (2 Bft) W-SW 247 9,0 C 12,9 C 7,5 km/h (2 Bft)
16.08.2019 20:48 13,4 C 10,8 C 75 % 1011,8 hPa 0,0 l/m 7,0 km/h (2 Bft) W-SW 247 9,1 C 13,0 C 8,0 km/h (2 Bft)
16.08.2019 20:46 13,4 C 10,6 C 75 % 1011,8 hPa 0,0 l/m 6,8 km/h (2 Bft) W-SW 247 9,1 C 13,2 C 8,7 km/h (2 Bft)
16.08.2019 20:44 13,4 C 10,7 C 75 % 1011,8 hPa 0,0 l/m 6,5 km/h (2 Bft) W-SW 247 9,1 C 13,4 C 6,5 km/h (2 Bft)
16.08.2019 20:42 13,4 C 10,8 C 75 % 1011,8 hPa 0,0 l/m 6,8 km/h (2 Bft) W-SW 247 9,1 C 13,2 C 7,0 km/h (2 Bft)
16.08.2019 20:40 13,5 C 10,6 C 75 % 1011,8 hPa 0,0 l/m 6,0 km/h (2 Bft) W-SW 247 9,2 C 13,5 C 7,2 km/h (2 Bft)
16.08.2019 20:38 13,5 C 10,7 C 75 % 1011,8 hPa 0,0 l/m 6,0 km/h (2 Bft) SW 225 9,2 C 13,5 C 7,0 km/h (2 Bft)
16.08.2019 20:36 13,5 C 10,4 C 75 % 1011,8 hPa 0,0 l/m 5,6 km/h (1 Bft) W-SW 247 9,2 C 13,5 C 6,8 km/h (2 Bft)
16.08.2019 20:34 13,5 C 10,4 C 75 % 1011,8 hPa 0,0 l/m 5,6 km/h (1 Bft) SW 225 9,2 C 13,5 C 6,3 km/h (2 Bft)
16.08.2019 20:32 13,5 C 10,3 C 75 % 1011,8 hPa 0,0 l/m 5,3 km/h (1 Bft) SW 225 9,2 C 13,5 C 6,8 km/h (2 Bft)
16.08.2019 20:30 13,4 C 10,4 C 75 % 1011,8 hPa 0,0 l/m 5,3 km/h (1 Bft) SW 225 9,1 C 13,4 C 5,6 km/h (1 Bft)
16.08.2019 20:28 13,4 C 10,5 C 75 % 1011,8 hPa 0,0 l/m 5,3 km/h (1 Bft) SW 225 9,1 C 13,4 C 5,8 km/h (2 Bft)
16.08.2019 20:26 13,4 C 10,7 C 75 % 1011,8 hPa 0,0 l/m 5,6 km/h (1 Bft) W-SW 247 9,1 C 13,4 C 4,6 km/h (1 Bft)
16.08.2019 20:24 13,4 C 10,8 C 75 % 1011,8 hPa 0,0 l/m 5,8 km/h (2 Bft) W-SW 247 9,1 C 13,4 C 6,5 km/h (2 Bft)
16.08.2019 20:22 13,5 C 10,7 C 75 % 1011,8 hPa 0,0 l/m 5,8 km/h (2 Bft) W-SW 247 9,2 C 13,5 C 5,3 km/h (1 Bft)
16.08.2019 20:20 13,5 C 10,9 C 75 % 1011,8 hPa 0,0 l/m 5,8 km/h (2 Bft) W-SW 247 9,2 C 13,5 C 5,8 km/h (2 Bft)
16.08.2019 20:18 13,6 C 10,9 C 75 % 1011,8 hPa 0,0 l/m 5,3 km/h (1 Bft) W-SW 247 9,3 C 13,6 C 5,6 km/h (1 Bft)
16.08.2019 20:16 13,7 C 10,9 C 75 % 1011,8 hPa 0,0 l/m 5,1 km/h (1 Bft) W 270 9,3 C 13,7 C 6,5 km/h (2 Bft)
16.08.2019 20:14 13,7 C 11,0 C 75 % 1011,2 hPa 0,0 l/m 4,1 km/h (1 Bft) W-SW 247 9,3 C 13,7 C 6,0 km/h (2 Bft)
16.08.2019 20:12 13,6 C 10,6 C 75 % 1011,2 hPa 0,0 l/m 3,6 km/h (1 Bft) W-SW 247 9,3 C 13,6 C 7,0 km/h (2 Bft)
16.08.2019 20:10 13,6 C 10,6 C 75 % 1011,2 hPa 0,0 l/m 3,4 km/h (1 Bft) SW 225 9,3 C 13,6 C 5,3 km/h (1 Bft)
16.08.2019 20:08 13,7 C 10,6 C 74 % 1011,2 hPa 0,0 l/m 2,9 km/h (1 Bft) W-SW 247 9,2 C 13,7 C 4,1 km/h (1 Bft)
16.08.2019 20:06 13,8 C 10,3 C 74 % 1011,2 hPa 0,0 l/m 2,4 km/h (1 Bft) SW 225 9,2 C 13,8 C 4,3 km/h (1 Bft)
16.08.2019 20:04 13,8 C 10,4 C 74 % 1011,2 hPa 0,0 l/m 2,2 km/h (1 Bft) W-SW 247 9,2 C 13,8 C 2,4 km/h (1 Bft)
16.08.2019 20:02 14,0 C 10,4 C 74 % 1011,2 hPa 0,0 l/m 1,9 km/h (1 Bft) W-SW 247 9,4 C 14,0 C 3,1 km/h (1 Bft)
16.08.2019 20:00 14,0 C 10,3 C 74 % 1011,2 hPa 0,0 l/m 1,2 km/h (1 Bft) W-SW 247 9,4 C 14,0 C 3,9 km/h (1 Bft)
16.08.2019 19:58 14,0 C 10,5 C 74 % 1011,2 hPa 0,0 l/m 1,2 km/h (1 Bft) W-SW 247 9,4 C 14,0 C 0,0 km/h (0 Bft)
16.08.2019 19:56 14,1 C 10,4 C 74 % 1011,2 hPa 0,0 l/m 1,4 km/h (1 Bft) W 270 9,5 C 14,1 C 3,6 km/h (1 Bft)
16.08.2019 19:54 14,1 C 10,5 C 74 % 1011,3 hPa 0,0 l/m 1,7 km/h (1 Bft) NW 315 9,5 C 14,1 C 3,1 km/h (1 Bft)
16.08.2019 19:52 14,1 C 10,6 C 74 % 1011,3 hPa 0,0 l/m 1,9 km/h (1 Bft) S-SW 202 9,5 C 14,1 C 2,9 km/h (1 Bft)
16.08.2019 19:50 14,2 C 11,1 C 74 % 1011,3 hPa 0,0 l/m 2,4 km/h (1 Bft) S-SW 202 9,6 C 14,2 C 2,9 km/h (1 Bft)
16.08.2019 19:48 14,2 C 11,4 C 74 % 1011,3 hPa 0,0 l/m 2,7 km/h (1 Bft) W-SW 247 9,6 C 14,2 C 3,4 km/h (1 Bft)
16.08.2019 19:46 14,3 C 11,4 C 73 % 1011,3 hPa 0,0 l/m 2,2 km/h (1 Bft) W 270 9,5 C 14,3 C 3,1 km/h (1 Bft)
16.08.2019 19:44 14,4 C 11,3 C 73 % 1011,3 hPa 0,0 l/m 1,7 km/h (1 Bft) W-SW 247 9,6 C 14,4 C 3,1 km/h (1 Bft)
16.08.2019 19:42 14,4 C 11,3 C 73 % 1011,3 hPa 0,0 l/m 1,2 km/h (1 Bft) W-SW 247 9,6 C 14,4 C 0,0 km/h (0 Bft)
16.08.2019 19:40 14,4 C 11,3 C 73 % 1011,3 hPa 0,0 l/m 1,0 km/h (0 Bft) SW 225 9,6 C 14,4 C 2,4 km/h (1 Bft)
16.08.2019 19:38 14,5 C 11,5 C 73 % 1011,3 hPa 0,0 l/m 0,7 km/h (0 Bft) W-SW 247 9,7 C 14,5 C 0,0 km/h (0 Bft)
16.08.2019 19:36 14,6 C 11,6 C 73 % 1011,3 hPa 0,0 l/m 0,7 km/h (0 Bft) W 270 9,8 C 14,6 C 0,0 km/h (0 Bft)
16.08.2019 19:34 14,6 C 11,7 C 73 % 1011,3 hPa 0,0 l/m 0,7 km/h (0 Bft) SW 225 9,8 C 14,6 C 2,9 km/h (1 Bft)
16.08.2019 19:32 14,7 C 11,8 C 73 % 1011,3 hPa 0,0 l/m 0,7 km/h (0 Bft) W 270 9,9 C 14,7 C 0,0 km/h (0 Bft)
16.08.2019 19:30 14,8 C 11,8 C 73 % 1011,3 hPa 0,0 l/m 0,7 km/h (0 Bft) W-SW 247 10,0 C 14,8 C 0,0 km/h (0 Bft)
16.08.2019 19:28 14,9 C 11,8 C 72 % 1011,3 hPa 0,0 l/m 0,7 km/h (0 Bft) W 270 9,9 C 14,9 C 0,0 km/h (0 Bft)
16.08.2019 19:26 15,0 C 11,8 C 72 % 1011,3 hPa 0,0 l/m 0,5 km/h (0 Bft) O-NO 67 10,0 C 15,0 C 2,4 km/h (1 Bft)
16.08.2019 19:24 15,0 C 11,9 C 72 % 1011,3 hPa 0,0 l/m 0,5 km/h (0 Bft) NW 315 10,0 C 15,0 C 2,7 km/h (1 Bft)
16.08.2019 19:22 15,1 C 11,9 C 72 % 1011,3 hPa 0,0 l/m 0,2 km/h (0 Bft) SO 135 10,1 C 15,1 C 0,0 km/h (0 Bft)
16.08.2019 19:20 15,1 C 12,0 C 72 % 1011,3 hPa 0,0 l/m 0,2 km/h (0 Bft) W-NW 292 10,1 C 15,1 C 0,0 km/h (0 Bft)
16.08.2019 19:18 15,2 C 12,2 C 72 % 1011,3 hPa 0,0 l/m 0,2 km/h (0 Bft) N-NO 22 10,2 C 15,2 C 0,0 km/h (0 Bft)
16.08.2019 19:16 15,3 C 12,4 C 72 % 1011,3 hPa 0,0 l/m 0,2 km/h (0 Bft) N-NW 337 10,3 C 15,3 C 0,0 km/h (0 Bft)
16.08.2019 19:14 15,3 C 12,4 C 72 % 1011,4 hPa 0,0 l/m 0,2 km/h (0 Bft) W 270 10,3 C 15,3 C 2,4 km/h (1 Bft)
16.08.2019 19:12 15,4 C 12,6 C 71 % 1011,4 hPa 0,0 l/m 0,2 km/h (0 Bft) N-NW 337 10,2 C 15,4 C 3,1 km/h (1 Bft)
16.08.2019 19:10 15,4 C 12,4 C 71 % 1011,4 hPa 0,0 l/m 0,0 km/h (0 Bft) O-SO 112 10,2 C 15,4 C 0,0 km/h (0 Bft)
16.08.2019 19:08 15,5 C 12,0 C 71 % 1011,4 hPa 0,0 l/m 0,2 km/h (0 Bft) O-NO 67 10,3 C 15,5 C 2,4 km/h (1 Bft)
16.08.2019 19:06 15,5 C 12,0 C 71 % 1011,4 hPa 0,0 l/m 0,5 km/h (0 Bft) N-NO 22 10,3 C 15,5 C 0,0 km/h (0 Bft)
16.08.2019 19:04 15,5 C 12,2 C 71 % 1011,4 hPa 0,0 l/m 0,5 km/h (0 Bft) NW 315 10,3 C 15,5 C 0,0 km/h (0 Bft)
16.08.2019 19:02 15,6 C 12,5 C 71 % 1011,4 hPa 0,0 l/m 0,7 km/h (0 Bft) NW 315 10,4 C 15,6 C 0,0 km/h (0 Bft)
16.08.2019 19:00 15,7 C 13,0 C 71 % 1011,4 hPa 0,0 l/m 1,2 km/h (1 Bft) O 90 10,5 C 15,7 C 0,0 km/h (0 Bft)
16.08.2019 18:58 15,8 C 12,8 C 71 % 1011,4 hPa 0,0 l/m 1,2 km/h (1 Bft) SO 135 10,6 C 15,8 C 2,4 km/h (1 Bft)
16.08.2019 18:56 15,8 C 12,8 C 70 % 1011,4 hPa 0,0 l/m 1,2 km/h (1 Bft) NO 45 10,3 C 15,8 C 6,0 km/h (2 Bft)
16.08.2019 18:54 15,9 C 13,2 C 70 % 1011,4 hPa 0,0 l/m 1,4 km/h (1 Bft) N 360 10,4 C 15,9 C 0,0 km/h (0 Bft)
16.08.2019 18:52 16,0 C 13,3 C 70 % 1011,4 hPa 0,0 l/m 1,4 km/h (1 Bft) NO 45 10,5 C 16,0 C 3,1 km/h (1 Bft)
16.08.2019 18:50 16,0 C 13,1 C 70 % 1011,4 hPa 0,0 l/m 1,2 km/h (1 Bft) NW 315 10,5 C 16,0 C 5,8 km/h (2 Bft)
16.08.2019 18:48 16,1 C 13,3 C 69 % 1011,4 hPa 0,0 l/m 1,2 km/h (1 Bft) NO 45 10,4 C 16,1 C 0,0 km/h (0 Bft)
16.08.2019 18:46 16,2 C 13,4 C 69 % 1011,4 hPa 0,0 l/m 1,2 km/h (1 Bft) NW 315 10,5 C 16,2 C 0,0 km/h (0 Bft)
16.08.2019 18:44 16,2 C 13,6 C 69 % 1011,4 hPa 0,0 l/m 1,0 km/h (0 Bft) O-NO 67 10,5 C 16,2 C 3,9 km/h (1 Bft)
16.08.2019 18:42 16,2 C 13,9 C 69 % 1011,4 hPa 0,0 l/m 1,2 km/h (1 Bft) N-NO 22 10,5 C 16,2 C 0,0 km/h (0 Bft)
16.08.2019 18:40 16,3 C 14,0 C 69 % 1011,4 hPa 0,0 l/m 1,4 km/h (1 Bft) O-NO 67 10,6 C 16,3 C 0,0 km/h (0 Bft)
16.08.2019 18:38 16,3 C 14,0 C 69 % 1011,4 hPa 0,0 l/m 1,9 km/h (1 Bft) N-NW 337 10,6 C 16,3 C 3,6 km/h (1 Bft)
16.08.2019 18:36 16,4 C 14,0 C 69 % 1011,4 hPa 0,0 l/m 1,7 km/h (1 Bft) N-NO 22 10,7 C 16,4 C 3,4 km/h (1 Bft)
16.08.2019 18:34 16,4 C 14,1 C 69 % 1011,5 hPa 0,0 l/m 2,2 km/h (1 Bft) NW 315 10,7 C 16,4 C 0,0 km/h (0 Bft)
16.08.2019 18:32 16,5 C 14,3 C 69 % 1011,5 hPa 0,0 l/m 2,2 km/h (1 Bft) NO 45 10,8 C 16,5 C 4,3 km/h (1 Bft)
16.08.2019 18:30 16,6 C 14,5 C 69 % 1011,5 hPa 0,0 l/m 1,7 km/h (1 Bft) N 360 10,9 C 16,6 C 0,0 km/h (0 Bft)
16.08.2019 18:28 16,7 C 14,7 C 69 % 1011,5 hPa 0,0 l/m 1,9 km/h (1 Bft) N-NW 337 11,0 C 16,7 C 0,0 km/h (0 Bft)
16.08.2019 18:26 16,7 C 14,9 C 68 % 1011,5 hPa 0,0 l/m 2,4 km/h (1 Bft) N-NW 337 10,8 C 16,7 C 3,4 km/h (1 Bft)
16.08.2019 18:24 16,7 C 15,2 C 68 % 1011,5 hPa 0,0 l/m 2,4 km/h (1 Bft) W-NW 292 10,8 C 16,7 C 8,0 km/h (2 Bft)
16.08.2019 18:22 16,7 C 15,3 C 68 % 1011,5 hPa 0,0 l/m 1,9 km/h (1 Bft) SW 225 10,8 C 16,7 C 0,0 km/h (0 Bft)
16.08.2019 18:20 16,8 C 15,5 C 68 % 1011,5 hPa 0,0 l/m 2,2 km/h (1 Bft) SO 135 10,9 C 16,8 C 0,0 km/h (0 Bft)
16.08.2019 18:18 16,8 C 15,8 C 68 % 1011,5 hPa 0,0 l/m 2,4 km/h (1 Bft) NO 45 10,9 C 16,8 C 4,3 km/h (1 Bft)
16.08.2019 18:16 16,8 C 15,8 C 68 % 1011,5 hPa 0,0 l/m 2,7 km/h (1 Bft) W 270 10,9 C 16,8 C 8,7 km/h (2 Bft)
16.08.2019 18:14 16,7 C 15,8 C 68 % 1011,6 hPa 0,0 l/m 2,2 km/h (1 Bft) O-NO 67 10,8 C 16,7 C 2,7 km/h (1 Bft)
16.08.2019 18:12 16,6 C 15,7 C 68 % 1011,6 hPa 0,0 l/m 2,7 km/h (1 Bft) O-NO 67 10,7 C 16,6 C 0,0 km/h (0 Bft)
16.08.2019 18:10 16,6 C 15,5 C 68 % 1011,6 hPa 0,0 l/m 2,9 km/h (1 Bft) O 90 10,7 C 16,6 C 0,0 km/h (0 Bft)
16.08.2019 18:08 16,6 C 15,2 C 68 % 1011,6 hPa 0,0 l/m 2,7 km/h (1 Bft) NO 45 10,7 C 16,6 C 4,8 km/h (1 Bft)
16.08.2019 18:06 16,7 C 15,2 C 68 % 1011,6 hPa 0,0 l/m 1,7 km/h (1 Bft) W 270 10,8 C 16,7 C 4,6 km/h (1 Bft)
16.08.2019 18:04 16,8 C 15,3 C 67 % 1011,6 hPa 0,0 l/m 1,2 km/h (1 Bft) NO 45 10,6 C 16,8 C 2,7 km/h (1 Bft)
16.08.2019 18:02 16,8 C 15,5 C 67 % 1011,6 hPa 0,0 l/m 1,0 km/h (0 Bft) N-NO 22 10,6 C 16,8 C 3,4 km/h (1 Bft)
16.08.2019 18:00 16,9 C 15,9 C 67 % 1011,6 hPa 0,0 l/m 0,7 km/h (0 Bft) W-SW 247 10,7 C 16,9 C 11,3 km/h (2 Bft)
16.08.2019 17:58 16,9 C 15,9 C 67 % 1011,6 hPa 0,0 l/m 0,5 km/h (0 Bft) O-NO 67 10,7 C 16,9 C 0,0 km/h (0 Bft)
16.08.2019 17:56 17,0 C 15,7 C 66 % 1011,6 hPa 0,0 l/m 0,7 km/h (0 Bft) N-NO 22 10,6 C 17,0 C 0,0 km/h (0 Bft)
16.08.2019 17:54 17,1 C 15,3 C 66 % 1011,4 hPa 0,0 l/m 1,2 km/h (1 Bft) NO 45 10,7 C 17,1 C 0,0 km/h (0 Bft)
16.08.2019 17:52 17,2 C 15,2 C 66 % 1011,4 hPa 0,0 l/m 2,4 km/h (1 Bft) S 180 10,8 C 17,2 C 0,0 km/h (0 Bft)
16.08.2019 17:50 17,3 C 15,1 C 66 % 1011,4 hPa 0,0 l/m 2,2 km/h (1 Bft) O-SO 112 10,9 C 17,3 C 0,0 km/h (0 Bft)
16.08.2019 17:48 17,4 C 15,2 C 66 % 1011,4 hPa 0,0 l/m 3,1 km/h (1 Bft) O-SO 112 11,0 C 17,4 C 4,1 km/h (1 Bft)
16.08.2019 17:46 17,4 C 15,3 C 66 % 1011,4 hPa 0,0 l/m 3,6 km/h (1 Bft) NO 45 11,0 C 17,4 C 2,7 km/h (1 Bft)
16.08.2019 17:44 17,6 C 15,5 C 66 % 1011,4 hPa 0,0 l/m 3,4 km/h (1 Bft) N-NW 337 11,2 C 17,6 C 5,8 km/h (2 Bft)
16.08.2019 17:42 17,7 C 16,0 C 66 % 1011,4 hPa 0,0 l/m 3,6 km/h (1 Bft) W-NW 292 11,3 C 17,7 C 10,4 km/h (2 Bft)
16.08.2019 17:40 17,8 C 16,1 C 66 % 1011,4 hPa 0,0 l/m 3,1 km/h (1 Bft) O 90 11,4 C 17,8 C 0,0 km/h (0 Bft)
16.08.2019 17:38 17,9 C 16,3 C 66 % 1011,4 hPa 0,0 l/m 3,1 km/h (1 Bft) O-SO 112 11,5 C 17,9 C 4,8 km/h (1 Bft)
16.08.2019 17:36 17,9 C 17,1 C 66 % 1011,4 hPa 0,0 l/m 2,9 km/h (1 Bft) SW 225 11,5 C 17,9 C 5,3 km/h (1 Bft)
16.08.2019 17:34 18,1 C 17,5 C 66 % 1011,4 hPa 0,0 l/m 2,9 km/h (1 Bft) N-NO 22 11,6 C 18,1 C 5,8 km/h (2 Bft)
16.08.2019 17:32 18,2 C 18,2 C 66 % 1011,4 hPa 0,0 l/m 2,7 km/h (1 Bft) NO 45 11,7 C 18,2 C 2,4 km/h (1 Bft)
16.08.2019 17:30 18,0 C 18,8 C 65 % 1011,4 hPa 0,0 l/m 2,9 km/h (1 Bft) O-NO 67 11,3 C 18,0 C 3,4 km/h (1 Bft)
16.08.2019 17:28 17,9 C 18,9 C 65 % 1011,4 hPa 0,0 l/m 3,6 km/h (1 Bft) N-NO 22 11,2 C 17,9 C 4,3 km/h (1 Bft)
16.08.2019 17:26 17,9 C 18,3 C 65 % 1011,4 hPa 0,0 l/m 3,6 km/h (1 Bft) N-NO 22 11,2 C 17,9 C 5,1 km/h (1 Bft)
16.08.2019 17:24 18,0 C 19,2 C 65 % 1011,4 hPa 0,0 l/m 3,9 km/h (1 Bft) N-NW 337 11,3 C 18,0 C 2,4 km/h (1 Bft)
16.08.2019 17:22 18,1 C 19,8 C 65 % 1011,4 hPa 0,0 l/m 3,9 km/h (1 Bft) SW 225 11,4 C 18,1 C 4,3 km/h (1 Bft)
16.08.2019 17:20 18,0 C 20,2 C 66 % 1011,4 hPa 0,0 l/m 3,6 km/h (1 Bft) NO 45 11,6 C 18,0 C 7,2 km/h (2 Bft)
16.08.2019 17:18 17,8 C 19,3 C 66 % 1011,4 hPa 0,0 l/m 2,9 km/h (1 Bft) W-SW 247 11,4 C 17,8 C 11,3 km/h (2 Bft)
16.08.2019 17:16 17,7 C 18,2 C 66 % 1011,4 hPa 0,0 l/m 2,7 km/h (1 Bft) S-SW 202 11,3 C 17,7 C 4,6 km/h (1 Bft)
16.08.2019 17:14 17,7 C 17,5 C 66 % 1011,5 hPa 0,0 l/m 2,4 km/h (1 Bft) N-NO 22 11,3 C 17,7 C 6,8 km/h (2 Bft)
16.08.2019 17:12 17,8 C 17,1 C 66 % 1011,5 hPa 0,0 l/m 2,4 km/h (1 Bft) O-NO 67 11,4 C 17,8 C 0,0 km/h (0 Bft)
16.08.2019 17:10 17,9 C 17,6 C 66 % 1011,5 hPa 0,0 l/m 3,4 km/h (1 Bft) O-NO 67 11,5 C 17,9 C 3,4 km/h (1 Bft)
16.08.2019 17:08 18,1 C 17,7 C 65 % 1011,5 hPa 0,0 l/m 3,4 km/h (1 Bft) O-SO 112 11,4 C 18,1 C 0,0 km/h (0 Bft)
16.08.2019 17:06 18,2 C 19,0 C 65 % 1011,5 hPa 0,0 l/m 4,1 km/h (1 Bft) W-SW 247 11,5 C 18,2 C 5,6 km/h (1 Bft)
16.08.2019 17:04 18,1 C 19,6 C 65 % 1011,5 hPa 0,0 l/m 3,9 km/h (1 Bft) O-NO 67 11,4 C 18,1 C 2,7 km/h (1 Bft)
16.08.2019 17:02 18,0 C 19,8 C 65 % 1011,5 hPa 0,0 l/m 3,4 km/h (1 Bft) W-SW 247 11,3 C 18,0 C 9,7 km/h (2 Bft)
16.08.2019 17:00 17,9 C 20,3 C 66 % 1011,5 hPa 0,0 l/m 2,7 km/h (1 Bft) W-SW 247 11,5 C 17,9 C 9,4 km/h (2 Bft)
_ Min-Zeit 05:16 05:16 14:26 05:16 - 19:10 - - 05:16 05:50 17:08
Minimum _ 8,5 C 7,6 C 53 % 1008,9 hPa - 0,0 km/h (0 Bft) - - 6,3 C 2,0 C 0,0 km/h (0 Bft)
_ Max-Zeit 15:42 15:36 05:08 20:56 17:00 05:50 - - 13:06 15:42 06:34
Maximum _ 22,7 C 26,7 C 86 % 1011,9 hPa 0,0 l/m 18,8 km/h
SW (3 Bft)
- - 14,1 C 22,7 C 27,0 km/h
W-SW (4 Bft)
Durchschnitt _ 14,3 C 14,0 C 74 % 1010,4 hPa #0,0 l/m 7,6 km/h (2 Bft) SW - 9,6 C 12,8 C 9,3 km/h (2 Bft)